GFSNGP_con_lsi_000.txt.gz
Lid_Strength_Index
10 10 9 10 10 11 12 11 13 12 11 10 8 9 10 9 9 9 9 9 9 9 10 11 11 11 11 12 12 12 12 12 12 12 11 11 10 10 9 9 9 8 7 7
12 10 10 11 9 9 11 11 11 11 11 8 8 8 9 9 9 9 9 9 9 9 10 10 11 11 12 12 12 12 13 12 12 11 11 11 10 10 9 9 9 7 7 7
17 11 11 13 11 10 10 10 11 13 10 9 8 8 8 8 9 9 9 9 9 9 10 10 11 10 12 12 12 13 13 13 12 12 11 11 10 10 10 10 9 8 8 7
16 15 20 11 8 8 9 9 9 9 9 8 8 7 7 8 9 10 9 9 9 10 10 10 10 11 12 12 13 13 13 13 13 12 11 11 10 10 10 10 9 8 8 7
17 18 15 11 9 9 10 11 8 9 8 8 7 8 9 8 9 9 9 10 10 10 10 10 11 12 12 13 13 13 13 13 12 12 12 11 11 11 10 10 9 8 8 8
16 19 21 13 8 7 9 13 8 8 8 8 8 11 9 8 9 9 9 10 10 10 10 12 12 12 13 13 13 13 13 12 12 12 11 11 11 10 10 10 9 7 7 7
16 17 15 10 7 7 14 13 8 8 8 8 9 8 8 8 9 10 10 10 10 11 12 12 12 12 13 13 14 13 12 12 12 11 11 10 10 10 10 10 9 8 8 8
15 17 18 9 10 12 11 9 9 9 8 9 9 10 10 10 10 10 10 11 11 12 13 13 12 13 14 14 13 12 12 12 12 11 10 9 11 11 10 10 10 9 9 9
14 14 9 8 9 9 9 9 9 9 9 9 10 10 10 11 11 10 11 12 12 13 13 13 12 13 14 13 13 12 12 13 12 11 11 11 11 11 11 10 9 9 9 9
12 9 9 8 8 8 8 9 8 9 8 9 9 10 11 11 11 11 11 12 12 13 13 13 13 13 13 13 13 13 13 13 12 12 11 11 10 10 10 10 10 9 9 8
10 9 7 8 8 8 7 7 8 8 8 9 9 10 10 11 11 11 12 12 13 13 13 13 13 13 13 12 12 13 13 12 12 11 11 11 11 11 10 10 8 9 8 8
12 7 8 8 7 7 7 7 7 8 8 9 8 9 10 10 11 11 12 12 13 12 12 13 13 13 12 12 12 13 13 12 12 12 11 11 11 10 6 5 5 5 5 5
7 5 5 7 6 6 7 7 6 6 6 9 8 8 9 10 11 10 12 12 12 12 12 13 13 13 13 12 12 12 13 12 11 10 11 11 11 11 11 8 5 5 5 4
4 5 6 5 6 5 6 6 6 5 5 7 8 8 9 10 10 11 12 12 11 12 12 13 13 13 12 12 12 12 12 8 11 11 11 11 11 11 10 9 10 9 6 4
5 4 5 5 4 5 5 6 7 8 7 7 9 10 10 11 12 12 11 11 11 12 12 12 13 13 12 11 12 11 11 11 11 11 10 10 10 10 9 9 9 8 7 5
5 5 4 5 5 6 6 7 8 8 9 11 11 11 11 11 11 11 12 11 12 13 13 13 13 12 11 12 12 11 11 8 8 10 10 10 10 9 9 9 9 9 8 6
6 7 6 6 6 6 7 7 7 9 10 11 11 11 11 12 12 12 12 12 12 13 13 13 13 12 11 11 12 11 11 11 9 11 10 9 10 8 8 9 9 9 8 7
5 6 6 6 5 5 7 7 7 9 11 11 11 11 12 12 13 13 13 13 13 13 12 12 12 12 12 12 11 11 11 11 10 9 9 9 9 9 8 8 8 8 8 7
5 5 6 5 5 6 7 7 6 9 11 11 11 12 11 11 12 12 12 13 13 14 13 12 11 12 13 11 11 11 10 9 9 9 9 9 9 9 8 8 9 9 8 7
6 6 5 6 6 6 7 9 9 10 10 11 10 11 11 12 12 12 12 13 13 13 13 13 13 13 12 11 9 9 9 9 10 10 10 9 10 9 8 8 8 8 7 6
7 6 6 7 7 7 8 9 9 10 10 10 11 12 12 12 12 12 13 13 13 12 13 12 13 13 12 10 9 9 9 10 10 10 10 10 10 9 9 8 8 7 6 6
7 7 7 7 9 9 9 9 10 11 11 11 11 12 12 13 12 12 12 13 13 12 12 13 12 11 11 8 9 10 10 10 10 10 11 10 10 9 9 9 8 7 6 5
8 8 8 9 11 11 10 10 10 11 12 12 12 12 13 13 12 13 14 13 13 12 13 12 11 10 8 9 9 10 10 10 10 10 10 10 9 9 9 9 8 7 6 5
9 9 10 10 11 11 12 11 11 11 11 11 12 11 12 13 13 13 12 12 12 12 12 11 10 9 9 9 9 10 10 10 10 9 9 10 9 9 9 9 8 7 6 5
10 10 10 11 11 12 11 11 11 12 12 12 12 12 12 12 13 13 12 13 12 12 12 10 9 9 9 9 10 10 10 10 9 9 10 10 9 9 9 8 8 7 6 5
10 10 11 11 11 11 11 11 12 12 13 13 13 13 13 13 12 12 12 12 12 11 11 10 10 9 9 9 9 10 10 10 9 9 10 9 9 9 9 8 8 7 6 5
10 9 10 11 11 11 11 11 12 13 12 13 13 13 13 13 13 13 12 12 11 11 10 9 9 9 9 9 10 9 10 10 8 9 10 9 9 9 9 8 8 7 6 5

GFSNGP_con_lsi_003.txt.gz
Lid_Strength_Index
12 12 12 11 11 11 12 12 14 12 13 11 10 11 11 11 10 11 10 9 9 10 10 11 11 11 11 12 12 12 13 13 13 13 13 13 13 12 12 11 10 10 10 9
16 14 13 14 12 12 10 11 11 11 12 10 9 10 10 11 10 10 10 9 9 9 10 11 11 11 11 12 12 12 13 13 13 13 13 13 13 13 12 12 11 10 10 10
18 14 15 17 13 12 11 10 10 13 10 9 9 9 8 9 11 10 10 9 9 9 10 10 11 11 12 12 13 13 13 13 13 13 13 13 13 13 13 12 11 11 11 10
16 14 20 14 9 9 11 10 8 9 9 9 9 8 8 9 10 10 9 9 9 9 9 10 11 11 12 12 13 13 14 14 14 14 14 13 13 13 13 12 11 11 11 10
17 17 14 12 10 11 13 13 9 9 8 9 8 9 9 8 9 9 10 10 9 9 10 10 11 12 12 13 14 14 14 14 14 14 14 14 13 13 12 12 12 11 11 10
15 19 20 12 9 8 9 16 10 10 11 11 9 11 9 8 9 10 10 10 10 10 10 11 12 12 13 14 14 14 14 14 14 14 14 13 13 13 12 12 11 11 10 10
15 17 14 9 8 7 16 15 11 11 11 11 12 9 7 7 10 10 10 10 10 10 11 12 13 13 14 14 15 14 13 13 14 14 14 13 13 13 12 12 12 12 11 10
15 17 18 8 9 13 10 10 10 11 11 11 10 10 10 9 10 11 11 10 11 12 13 13 13 13 14 15 14 13 13 13 14 14 13 12 13 13 12 12 13 12 11 11
13 12 8 8 8 6 6 9 9 10 10 9 10 10 11 11 11 11 12 12 12 12 13 13 13 13 14 14 13 13 14 14 14 13 13 13 13 13 13 13 12 12 11 10
11 9 8 7 5 5 5 7 8 7 8 7 9 9 11 11 11 12 12 13 13 13 14 14 14 14 14 14 13 14 15 15 14 14 14 13 12 12 13 13 12 11 11 10
10 9 8 6 6 5 5 5 6 6 6 7 8 8 10 11 11 12 12 13 12 13 13 14 14 14 14 13 13 14 15 15 14 14 14 14 12 12 12 12 11 11 11 10
11 8 8 7 5 5 6 5 6 7 7 6 5 7 8 11 11 11 12 12 13 13 13 13 13 14 14 13 13 14 14 15 15 14 13 13 13 12 8 7 6 6 5 6
8 6 6 5 5 5 5 5 6 7 7 7 5 6 8 10 11 10 11 12 12 12 12 12 13 14 13 12 13 13 14 14 14 12 13 13 12 13 13 10 7 6 5 5
5 6 7 6 6 5 5 4 4 5 6 7 6 6 6 7 10 11 12 12 11 11 12 13 13 13 13 12 12 13 14 11 13 13 13 12 12 12 12 12 12 10 7 6
6 5 6 5 5 5 5 5 5 6 7 7 7 8 7 8 10 10 10 10 11 11 12 12 13 13 12 11 12 13 13 14 13 13 12 11 12 12 11 12 11 10 10 7
6 6 6 6 6 5 5 5 6 7 8 8 8 9 9 9 10 10 10 10 12 12 12 12 13 12 11 12 13 13 13 11 11 12 12 12 11 11 11 10 9 9 9 9
7 7 7 7 7 6 6 5 5 6 7 8 9 9 10 10 11 12 11 11 11 12 12 12 12 11 12 12 13 13 13 13 11 12 12 11 10 9 10 11 9 9 9 8
5 6 6 6 6 6 6 6 5 6 8 8 9 10 11 11 12 12 12 12 12 12 12 12 12 12 12 12 13 13 14 13 12 11 10 9 10 10 10 10 9 8 9 8
6 6 6 6 6 6 6 6 5 5 8 8 9 10 11 11 11 12 11 12 12 13 12 11 10 12 13 12 13 13 12 10 10 10 10 10 10 10 10 9 9 8 8 8
5 6 6 7 6 6 6 5 5 6 8 9 9 10 11 11 11 12 12 12 12 12 12 12 13 13 13 12 11 11 10 10 11 11 10 10 11 11 10 9 9 8 8 7
6 7 8 8 7 6 6 6 6 7 8 9 9 10 11 11 11 11 13 14 13 12 12 12 13 13 13 12 11 11 10 11 11 11 11 12 12 10 10 9 10 10 8 7
7 9 9 8 7 7 8 8 8 7 8 9 10 10 11 12 12 12 12 13 13 11 12 13 13 12 12 11 11 10 10 11 11 11 11 11 11 10 10 9 10 9 8 7
8 9 9 9 9 9 9 9 9 8 9 10 10 11 11 12 12 13 14 13 12 12 13 13 11 11 11 11 10 10 10 10 10 10 11 10 10 10 9 9 9 9 8 7
10 9 9 9 9 10 11 10 10 10 10 10 10 11 12 13 13 12 12 12 11 12 12 12 12 11 10 10 10 10 10 10 10 10 10 10 10 10 9 9 9 9 8 7
9 9 10 10 11 12 12 11 11 12 11 11 12 12 12 12 13 13 13 13 11 12 13 11 11 10 10 10 10 10 10 10 10 10 11 10 10 10 9 9 8 8 8 7
9 10 10 10 11 11 11 11 12 12 12 13 13 13 12 12 12 12 12 12 13 12 12 12 11 10 10 9 9 9 10 10 10 10 10 10 10 9 9 10 8 8 8 8
9 9 10 10 10 11 11 11 12 13 13 13 14 13 13 12 12 12 12 12 12 12 12 11 11 10 9 9 9 9 10 10 10 10 10 10 11 9 9 8 9 8 7 7

GFSNGP_con_lsi_006.txt.gz
Lid_Strength_Index
13 12 12 14 15 15 15 15 16 14 13 10 9 9 9 9 11 12 11 10 10 10 10 10 10 10 10 10 11 11 11 12 13 13 13 13 13 13 13 13 13 13 13 12
14 13 13 15 14 14 14 14 14 12 13 8 7 9 9 9 11 11 11 9 9 9 10 10 10 10 10 11 11 11 12 13 13 13 13 14 13 14 14 14 14 13 13 12
16 12 12 16 14 13 13 12 13 15 12 10 12 10 8 9 9 10 10 10 9 9 9 10 10 10 11 12 12 12 12 13 13 13 13 13 14 14 14 14 14 14 13 12
16 14 20 11 8 8 10 10 10 11 11 11 11 10 10 8 7 9 10 10 9 9 9 9 10 10 11 12 12 12 13 14 14 14 14 14 14 15 15 15 14 14 12 12
17 17 14 12 9 11 13 13 9 11 10 11 11 11 10 8 8 8 9 9 9 8 9 10 10 11 12 12 12 13 14 14 14 14 15 14 15 15 15 15 14 13 12 12
15 20 20 11 9 7 9 15 9 8 10 11 11 15 12 9 8 8 9 8 10 10 10 11 11 12 12 13 13 14 14 14 14 14 15 15 15 15 15 14 13 12 12 12
15 17 14 10 8 7 15 14 8 7 9 10 12 11 9 8 7 8 9 10 10 11 11 11 12 12 13 14 14 13 14 14 14 14 14 14 15 15 15 14 14 13 13 12
14 17 18 8 9 12 10 7 7 7 7 8 8 9 8 8 8 11 11 10 11 12 13 13 12 12 14 14 14 13 13 14 14 15 13 13 15 15 15 15 14 14 13 12
13 13 8 7 7 6 6 8 7 6 6 6 8 8 7 9 8 12 11 11 12 13 14 13 13 13 14 14 13 13 14 15 15 15 14 15 15 15 15 14 14 13 13 12
11 9 8 6 6 6 7 7 6 5 5 5 8 7 8 8 8 11 12 12 12 13 13 14 14 13 13 13 13 13 15 15 15 15 15 15 15 15 15 14 14 13 13 12
10 8 7 7 6 7 7 5 5 5 5 5 6 6 7 8 8 8 12 12 12 13 13 14 13 13 13 13 13 14 15 15 15 15 14 15 15 15 14 13 12 13 12 12
12 8 8 8 6 5 5 6 5 6 6 4 5 6 6 7 7 8 12 12 13 13 13 13 13 13 13 12 13 14 15 15 15 15 15 15 15 14 10 8 8 7 7 8
8 6 6 6 5 5 6 5 5 5 5 6 5 6 5 6 5 7 11 12 12 12 12 13 13 13 12 12 12 13 14 15 14 13 14 15 15 14 14 11 9 8 7 7
6 6 7 6 7 5 5 5 4 5 5 4 5 5 5 5 5 6 10 11 12 12 12 12 12 12 12 12 12 13 13 11 14 14 14 15 14 14 13 13 13 12 9 8
7 6 6 5 6 6 5 5 5 5 5 5 4 6 5 5 6 7 10 11 11 12 12 12 12 12 11 11 12 13 13 13 14 14 14 14 14 13 13 13 12 12 10 9
5 5 5 6 6 6 6 6 6 6 6 5 5 7 7 6 6 6 9 10 11 12 12 12 12 11 11 12 12 13 13 11 12 14 14 14 13 13 12 11 10 11 11 11
7 7 6 7 7 7 7 6 6 6 6 6 6 7 8 8 8 9 10 10 10 11 11 11 11 11 11 12 12 13 13 13 12 14 14 13 12 10 10 10 10 10 11 10
5 5 6 6 7 7 7 7 6 6 6 6 5 7 8 9 9 10 11 12 12 12 11 11 11 11 12 12 12 13 14 14 13 13 13 11 11 10 10 10 10 11 11 10
5 6 5 5 6 7 8 8 7 6 5 5 6 8 8 9 10 11 11 12 12 13 12 10 9 12 12 12 12 13 13 12 12 13 11 11 11 10 11 10 10 11 10 9
6 5 5 6 7 8 9 8 6 6 6 6 6 8 9 10 11 11 11 12 11 11 10 10 12 12 12 11 11 12 12 13 13 13 11 11 11 12 11 10 11 11 10 9
6 5 6 7 8 8 7 7 7 7 7 7 7 8 10 10 10 10 12 12 11 10 11 11 12 13 13 11 11 12 12 13 13 12 11 11 11 12 11 11 11 10 10 9
6 6 7 8 8 9 8 8 8 8 7 7 7 8 10 10 10 10 10 12 11 10 12 13 13 12 12 10 12 12 12 12 11 11 11 11 11 11 11 11 11 10 9 9
7 7 8 8 9 9 9 9 9 8 8 7 8 8 9 10 11 12 13 11 11 11 13 13 11 10 10 12 12 12 12 12 11 11 11 11 11 11 11 10 9 9 10 9
8 9 9 8 9 9 11 11 10 9 9 9 9 9 10 11 11 11 11 10 10 12 13 12 11 10 10 12 12 12 11 11 10 10 10 10 11 11 11 10 9 9 9 9
8 8 9 10 10 11 11 12 12 12 11 10 10 10 11 11 12 12 12 12 11 12 12 11 10 10 11 11 11 11 10 10 10 10 11 11 12 11 11 10 10 9 8 8
8 9 10 10 10 10 11 11 12 12 12 12 12 11 11 11 11 12 12 12 12 12 12 12 12 11 11 11 11 10 10 10 10 10 11 12 12 12 11 9 9 9 8 8
8 9 9 10 10 9 10 10 12 12 12 12 13 12 12 12 12 12 12 13 13 12 12 12 12 12 11 10 10 9 10 10 9 10 11 12 12 12 11 10 8 8 8 8

GFSNGP_con_lsi_009.txt.gz
Lid_Strength_Index
11 11 11 11 12 12 14 15 18 16 15 14 12 11 11 10 10 10 9 9 10 10 10 10 11 11 11 11 11 11 11 11 12 12 13 13 14 14 14 14 13 14 14 13
13 11 11 12 11 11 12 12 13 14 15 11 10 10 11 10 10 9 9 8 9 9 9 10 10 10 11 11 11 11 11 11 12 12 13 13 13 14 14 14 14 14 14 14
16 12 12 15 12 11 10 9 10 14 11 10 11 11 12 12 11 10 9 8 9 9 9 9 10 10 10 10 10 11 11 11 12 12 13 13 14 14 14 15 15 15 15 15
16 14 20 12 9 9 10 9 9 10 10 9 9 10 10 10 9 10 9 8 8 8 8 9 9 9 10 10 11 11 11 12 12 13 13 13 14 15 15 15 15 15 15 15
17 16 13 11 10 10 12 12 9 11 9 8 7 9 10 8 8 9 8 7 7 7 8 9 10 10 11 11 11 11 12 13 13 13 13 14 15 15 15 15 15 15 15 14
14 18 20 12 9 7 8 15 8 8 9 8 8 13 11 7 8 8 7 7 8 9 9 9 10 11 12 12 12 12 12 13 13 13 13 14 15 15 15 15 15 14 14 14
15 17 14 9 8 7 15 14 8 7 7 7 9 8 7 6 7 6 8 8 8 9 9 9 11 11 12 13 13 12 12 13 13 14 14 14 15 15 15 15 15 15 15 14
16 18 18 8 7 11 9 7 6 7 8 7 7 6 6 6 6 7 8 7 9 11 11 11 11 11 13 13 13 13 13 13 14 14 13 14 15 15 16 16 16 16 16 15
13 13 8 6 7 6 5 7 6 6 6 6 7 7 5 5 7 7 8 7 10 13 13 12 12 12 13 15 14 13 13 14 14 14 14 14 15 15 16 16 16 16 16 15
11 9 8 7 6 5 5 6 6 5 6 5 7 7 7 5 6 7 7 7 11 12 13 13 13 13 14 13 13 13 14 15 15 14 15 15 14 15 16 16 16 16 15 14
10 9 7 7 7 6 6 5 5 5 5 5 7 7 6 5 5 7 7 7 11 12 13 13 13 13 13 12 12 14 14 14 14 14 14 15 15 15 15 15 15 15 14 13
12 7 8 7 6 5 6 6 5 6 6 5 6 6 6 6 4 6 6 7 10 12 12 13 12 13 12 12 13 13 14 14 14 14 14 14 15 15 11 11 10 9 9 9
7 6 6 6 5 5 6 6 6 6 5 6 5 5 4 5 4 4 5 6 10 13 12 12 12 13 12 12 12 13 14 14 13 13 14 14 14 15 15 14 11 10 9 8
6 7 8 7 7 5 5 5 4 5 5 5 4 4 5 4 4 4 5 5 7 12 13 13 12 13 12 11 12 13 13 11 13 13 14 14 14 14 15 15 16 14 10 9
7 6 6 5 5 5 4 5 6 6 6 6 5 5 5 5 5 6 4 4 7 10 13 13 12 13 11 11 12 13 12 13 13 13 13 13 14 14 15 15 14 13 12 10
5 5 5 6 6 6 6 6 6 7 6 6 6 6 5 5 5 7 5 7 9 10 10 12 12 12 11 11 12 12 12 11 12 13 13 14 14 15 15 15 13 10 11 12
7 8 7 7 7 6 6 6 6 7 7 7 7 6 5 5 6 8 7 7 7 9 10 11 12 11 11 11 11 12 11 11 11 13 14 14 14 13 13 13 12 12 11 10
6 6 6 6 6 6 6 6 6 7 8 8 7 6 6 6 8 9 8 7 8 9 10 11 11 11 11 11 11 12 13 13 13 13 13 12 13 13 13 13 12 11 11 10
5 6 6 5 5 6 6 6 7 8 8 7 6 7 7 7 9 9 8 9 11 11 12 10 9 11 11 11 11 12 12 12 12 13 13 13 13 14 12 12 11 11 12 12
6 6 5 5 6 6 7 7 8 8 7 7 7 7 7 7 8 9 10 10 10 11 10 10 11 11 11 10 10 12 11 12 13 13 13 14 14 14 13 12 12 11 12 12
6 5 6 7 7 7 7 7 8 8 8 7 8 8 7 7 9 10 11 11 10 10 10 10 11 11 11 11 11 12 13 13 14 14 14 14 13 13 13 12 11 11 12 12
6 6 7 8 8 8 8 8 8 8 8 8 7 7 7 8 8 10 9 10 9 9 11 11 11 10 10 10 12 13 13 13 13 13 13 13 13 13 12 11 11 11 11 12
6 7 8 8 8 9 9 9 10 9 8 7 7 7 8 8 8 10 12 9 10 10 12 12 10 10 9 12 12 13 13 13 13 13 13 11 11 11 11 11 11 11 10 11
7 7 7 7 8 9 11 11 11 10 10 9 9 8 9 10 10 10 10 9 9 11 12 11 10 9 10 12 12 12 12 12 12 12 11 11 12 11 11 12 12 11 11 10
8 7 7 9 10 10 10 11 11 11 11 11 11 10 9 9 10 11 10 10 10 11 11 9 9 9 12 12 12 12 12 12 11 11 11 12 13 12 12 11 12 11 10 9
8 8 9 9 9 10 10 10 11 11 11 11 11 10 10 9 10 11 11 11 11 11 12 12 12 12 12 12 11 12 12 11 11 11 11 13 13 13 13 11 11 10 10 9
8 8 8 9 9 9 9 9 10 11 10 11 11 10 10 10 11 11 11 12 12 12 13 12 12 12 12 11 11 11 11 10 10 11 11 12 12 13 13 11 10 9 9 9

GFSNGP_con_lsi_012.txt.gz
Lid_Strength_Index
15 13 12 12 12 12 13 12 15 13 13 11 9 11 11 10 9 10 11 10 9 8 8 9 11 12 11 11 11 11 11 11 12 12 12 12 13 13 13 14 14 14 14 14
16 11 11 12 11 11 11 11 12 11 12 8 8 7 7 9 9 10 11 9 9 8 7 8 10 11 11 11 11 11 11 12 12 12 12 13 13 13 14 14 14 14 15 14
16 12 12 15 12 11 11 10 10 14 12 9 9 9 8 7 8 9 10 9 8 8 7 7 7 9 11 11 10 11 11 11 12 12 12 13 13 13 14 14 15 15 15 14
16 14 20 12 9 8 10 9 9 10 9 8 8 8 7 6 6 7 7 8 8 8 8 7 7 8 9 10 11 11 11 12 12 12 12 13 13 14 15 15 15 15 15 15
17 18 13 11 10 10 11 12 9 10 8 8 7 6 8 6 6 6 6 6 6 7 8 7 8 9 9 11 11 11 11 12 12 12 13 13 14 14 15 15 15 15 15 15
15 18 19 12 9 7 8 14 8 8 8 8 8 12 10 6 5 5 5 5 5 6 7 7 9 9 10 11 11 11 11 11 12 12 12 13 14 14 15 15 15 15 15 15
15 17 14 9 8 7 15 14 7 7 7 7 9 8 6 5 6 6 5 4 4 5 6 9 10 9 10 11 12 11 11 12 12 12 13 13 14 14 15 15 15 15 15 16
16 16 18 8 7 11 9 7 6 7 6 7 6 6 6 6 6 6 6 4 4 5 7 10 11 10 10 11 11 11 12 13 13 13 13 13 14 15 15 15 15 16 16 16
12 13 8 7 7 6 5 6 7 7 6 6 6 6 6 6 7 7 6 4 4 6 8 11 11 10 11 12 12 12 13 14 14 14 14 14 14 15 16 15 16 16 16 16
11 9 9 7 6 5 5 6 5 5 5 6 6 6 6 6 7 6 5 4 4 5 8 12 12 12 12 12 12 13 14 14 14 14 14 14 13 14 15 15 16 16 16 16
10 9 8 7 6 5 5 5 5 5 5 6 6 6 6 6 6 5 4 4 4 6 9 11 12 13 13 13 13 13 14 14 14 13 14 14 14 14 14 15 14 15 16 16
12 8 8 7 5 5 6 6 5 6 6 5 5 5 5 5 5 5 5 4 4 5 7 11 12 13 13 12 12 13 14 13 13 13 14 14 14 14 11 12 11 11 11 13
8 6 6 6 6 6 6 6 5 5 5 5 5 5 5 5 5 4 4 4 4 5 8 9 12 12 11 12 12 13 13 13 13 13 13 14 14 14 15 13 10 10 10 10
6 7 8 7 7 5 5 5 4 5 5 5 5 5 5 6 5 5 5 4 3 5 7 10 11 11 11 11 11 12 12 11 12 13 14 14 14 14 15 15 15 15 12 11
6 5 5 5 6 6 5 5 6 6 6 6 5 6 6 7 6 5 4 4 4 6 8 10 11 12 10 10 11 12 11 12 13 13 13 14 14 14 14 14 15 15 15 13
5 5 5 7 7 7 7 6 6 6 6 6 6 7 7 7 6 5 4 4 4 6 8 9 10 9 9 9 11 12 12 11 12 13 13 14 14 14 14 14 14 14 14 14
6 7 7 8 7 7 7 6 6 6 6 6 7 7 8 7 7 5 5 5 4 6 8 9 10 9 8 9 11 12 12 12 11 13 14 14 13 14 13 13 13 14 15 12
5 6 7 7 7 7 7 6 6 6 7 6 7 8 8 8 7 6 6 6 7 6 8 8 9 9 11 11 11 12 12 12 13 13 13 12 13 13 14 15 14 15 13 11
6 7 7 7 6 6 6 7 7 7 7 7 8 8 7 7 7 7 7 8 8 9 9 8 8 9 10 10 12 13 13 13 13 13 13 12 13 14 14 14 14 14 12 13
7 7 7 6 5 5 7 7 7 7 7 7 8 8 8 7 7 7 7 8 9 9 9 8 9 10 10 10 10 12 12 12 13 13 13 14 14 14 14 14 14 13 12 12
8 8 7 6 7 7 7 7 7 9 8 8 8 8 8 8 7 6 8 11 9 8 9 9 10 10 11 10 11 12 13 13 13 14 13 14 14 14 14 15 13 12 12 12
7 7 6 7 7 8 7 8 9 9 10 9 8 8 8 8 7 7 8 9 8 8 9 10 10 9 10 10 12 13 13 13 13 13 13 14 14 15 15 11 11 11 11 12
7 7 8 8 8 8 8 9 9 10 11 10 7 7 7 7 7 8 11 9 9 9 10 10 9 8 9 12 12 12 13 13 14 14 14 14 14 14 13 12 12 11 11 11
9 8 8 7 8 9 10 10 10 10 10 10 10 9 8 9 9 8 8 8 8 9 10 9 9 8 11 12 12 13 13 13 13 14 13 13 13 12 13 12 12 12 12 11
8 8 8 9 10 10 10 10 10 10 10 10 10 10 9 8 10 9 9 9 9 10 10 8 8 9 12 12 12 13 13 13 13 13 14 13 13 13 12 11 11 11 11 11
8 9 9 9 9 9 9 9 10 10 10 10 10 10 9 9 9 9 10 10 10 10 11 11 11 11 12 12 12 12 13 13 13 14 13 12 13 13 13 12 11 11 10 11
8 8 8 9 8 9 8 9 10 10 10 10 11 10 10 9 9 10 10 11 12 12 12 12 12 12 12 12 12 13 12 13 12 12 12 13 13 13 12 11 11 11 10 10

GFSNGP_con_lsi_015.txt.gz
Lid_Strength_Index
16 16 15 15 15 13 12 12 15 13 12 10 9 9 7 6 6 6 5 6 7 7 7 6 6 6 6 9 9 9 9 9 9 9 8 8 9 9 9 10 10 10 10 10
18 16 15 16 12 11 11 10 11 11 12 8 7 6 7 7 6 6 6 5 5 6 6 6 6 7 6 6 9 9 10 10 9 9 9 9 9 9 10 10 10 10 10 10
21 16 15 16 11 10 10 9 9 13 10 8 8 7 7 6 6 6 5 5 5 5 5 6 5 6 6 7 7 9 10 10 10 10 10 10 9 10 10 10 11 11 11 11
19 16 19 11 8 8 9 9 8 8 9 8 7 6 5 5 6 5 5 5 5 5 4 4 5 6 6 6 8 9 10 10 10 10 10 10 10 10 10 11 11 11 11 11
17 16 13 11 9 9 10 11 8 9 8 7 6 6 6 5 4 5 5 5 5 4 4 3 3 4 5 8 9 9 10 10 10 10 10 10 11 11 11 11 11 11 11 11
13 17 19 11 8 7 7 14 8 7 8 8 7 11 8 5 5 4 4 4 4 4 4 3 3 4 7 9 10 9 10 10 10 10 10 11 10 11 11 11 11 11 11 11
14 16 13 9 8 6 14 13 7 7 7 7 8 7 5 4 4 4 4 4 4 4 4 3 2 5 8 11 11 9 9 9 10 10 10 10 10 11 11 11 11 11 11 11
14 16 17 7 7 11 8 6 6 6 6 6 6 5 5 4 4 4 4 4 4 4 3 3 2 6 9 11 10 8 9 9 10 10 10 11 11 11 11 11 11 12 12 12
12 12 8 7 7 6 5 6 6 6 5 5 5 5 5 5 4 4 4 4 3 3 3 3 3 7 10 10 9 9 9 10 11 10 11 11 12 12 12 12 12 12 12 12
11 9 8 7 6 5 5 5 5 4 5 5 5 5 5 4 4 4 4 4 3 3 4 4 5 8 10 10 9 10 11 11 12 11 12 12 12 12 12 12 12 12 13 13
10 8 7 7 6 5 5 4 5 4 4 5 5 5 5 5 5 4 4 4 3 3 4 4 7 8 10 10 10 11 12 12 12 12 12 12 12 12 12 11 11 12 13 12
11 7 8 7 5 4 5 6 5 5 5 4 4 5 4 5 4 4 5 4 3 3 3 4 7 9 9 10 11 12 13 12 12 12 12 12 12 12 11 11 10 11 11 12
8 5 6 5 5 5 5 5 5 5 5 5 4 4 4 5 4 4 5 5 4 4 3 5 6 8 9 10 11 11 12 12 12 12 12 12 11 12 12 10 10 10 10 10
5 5 7 6 6 4 4 5 4 5 5 5 5 4 4 5 5 5 6 5 4 4 4 5 6 7 8 9 10 10 10 10 11 11 11 11 11 12 12 12 12 13 11 10
5 5 5 5 5 5 5 6 6 6 6 5 5 5 5 5 5 6 6 5 5 4 4 6 7 7 7 8 10 10 10 11 11 11 11 12 12 12 13 13 13 13 12 11
5 5 5 6 6 6 6 7 7 7 6 5 6 6 5 5 5 6 6 6 6 5 5 5 8 7 7 8 10 11 11 10 11 12 11 12 12 13 13 13 13 12 12 12
7 8 7 8 7 7 7 7 6 6 6 6 6 6 6 6 7 7 6 6 5 5 5 6 7 7 7 7 9 10 10 10 11 12 12 12 13 12 12 12 12 12 12 12
7 7 7 8 8 8 8 7 6 5 7 6 7 7 7 8 8 7 7 6 6 6 6 6 7 7 8 8 9 10 10 11 12 12 12 12 12 11 11 12 12 13 13 12
8 8 8 8 7 7 7 7 6 7 7 7 8 8 8 8 7 7 7 7 7 7 6 7 7 8 9 9 9 10 11 12 12 12 11 11 11 12 12 12 13 12 13 13
9 8 7 7 6 7 7 7 8 8 8 8 8 9 9 8 8 7 7 7 7 7 6 7 8 9 8 8 9 11 11 11 12 12 12 12 13 13 13 13 13 13 13 13
9 8 8 7 8 8 8 8 8 9 9 9 10 9 9 8 7 7 8 8 8 7 7 7 8 9 9 9 10 10 11 12 12 12 13 13 13 13 13 13 13 13 13 12
8 8 8 8 9 8 8 8 8 9 10 10 10 8 6 7 7 7 6 8 7 7 8 9 9 8 9 10 11 11 12 12 12 12 13 13 13 13 13 13 12 12 10 11
8 8 8 9 9 9 8 8 9 9 10 10 10 9 8 7 6 8 10 8 8 8 8 8 8 8 9 11 11 12 12 12 12 13 13 13 13 13 13 13 12 11 11 11
8 8 8 8 8 9 9 9 9 9 9 9 10 10 9 9 9 8 7 7 7 8 8 8 8 9 10 11 11 12 12 12 12 13 12 13 13 13 12 12 12 11 11 11
8 8 8 9 9 10 9 9 9 9 9 10 9 9 9 8 9 9 8 8 8 9 8 7 8 9 11 11 11 12 12 12 12 12 13 13 13 12 11 11 11 11 11 11
8 9 9 8 9 9 9 9 10 10 10 10 10 9 9 9 9 9 9 8 9 9 9 10 10 11 11 11 11 12 12 12 12 12 12 13 12 11 11 11 11 11 10 10
8 7 8 8 8 8 8 9 10 11 10 10 10 10 9 9 9 9 9 10 10 10 10 10 10 10 11 11 12 12 12 12 12 12 12 12 11 11 11 11 11 10 10 10

GFSNGP_con_lsi_018.txt.gz
Lid_Strength_Index
15 15 15 15 15 15 15 14 15 12 11 8 7 6 6 5 5 4 4 4 4 3 3 3 4 6 6 5 5 4 6 6 7 7 6 6 6 6 6 6 6 7 7 7
17 15 15 16 15 13 12 11 10 10 10 6 5 5 6 5 5 5 5 4 3 4 4 3 3 4 5 6 5 5 5 6 7 7 7 7 6 6 6 6 7 7 7 8
19 16 16 18 14 12 11 9 9 11 8 6 7 7 6 5 5 5 4 4 4 4 3 3 3 2 3 4 4 5 5 7 7 7 7 7 7 6 6 7 7 7 8 8
19 17 22 15 9 9 9 8 7 7 7 7 7 5 5 4 4 4 4 4 3 3 3 2 2 2 2 2 3 4 6 7 7 7 7 7 7 7 7 7 7 7 8 8
18 18 16 13 10 9 9 10 7 7 7 6 5 5 6 4 3 3 3 3 3 2 2 2 2 2 2 2 3 5 6 7 8 7 8 8 7 7 7 7 7 8 8 8
15 18 20 12 7 6 6 12 6 6 7 7 6 11 8 4 3 3 3 2 2 2 2 2 2 2 2 3 3 4 7 8 8 7 8 8 7 7 7 7 8 7 8 8
16 16 13 7 6 5 13 11 6 5 6 6 8 6 4 3 3 3 2 2 2 2 2 2 2 2 3 3 3 4 5 8 9 8 8 8 7 7 7 8 8 8 9 9
15 16 16 6 6 10 7 5 5 5 5 5 5 4 4 3 3 3 3 3 2 2 2 2 1 2 3 3 3 5 7 8 8 8 9 8 8 7 8 8 8 9 10 10
12 12 6 5 6 4 4 6 6 6 4 4 4 4 4 4 3 3 3 3 2 2 2 2 2 2 5 4 5 6 7 7 7 8 9 9 9 8 8 9 9 10 10 10
12 8 6 5 4 4 4 5 4 4 4 4 5 4 4 4 3 3 3 3 2 3 3 3 2 4 5 4 5 7 7 7 8 8 9 9 8 9 9 9 10 10 10 10
10 7 6 5 5 5 4 4 4 3 4 4 4 4 4 4 3 3 3 2 2 3 3 3 2 4 5 4 6 8 7 8 9 8 9 9 9 9 9 9 9 10 10 10
11 6 8 7 5 4 4 4 4 4 4 4 4 4 4 3 3 3 3 2 3 3 3 3 2 4 4 6 8 9 9 10 10 10 9 10 10 10 8 8 8 8 8 9
7 5 5 4 4 3 4 4 4 4 4 5 4 4 4 4 3 3 3 3 3 3 4 4 3 3 5 6 8 9 10 11 11 11 10 10 11 11 11 9 8 9 9 9
5 5 6 5 5 4 3 4 3 4 4 4 4 4 4 4 3 4 4 3 3 3 4 4 4 4 5 5 9 9 10 9 12 11 10 10 10 10 10 10 11 10 9 9
6 6 6 5 5 5 5 5 6 6 5 5 4 4 5 5 5 5 4 3 4 4 5 5 4 5 5 5 8 9 9 9 9 10 9 10 10 9 9 9 10 10 10 10
7 7 7 8 8 7 7 6 7 6 6 6 5 5 5 5 6 6 5 5 6 6 6 5 5 5 5 5 7 9 8 9 9 10 10 10 10 10 11 11 11 11 11 11
9 10 9 9 9 8 7 6 6 6 6 6 6 6 7 7 7 7 6 5 6 6 6 5 7 5 6 7 8 8 9 9 9 10 10 11 11 11 11 11 11 12 12 11
7 8 8 8 8 8 7 7 7 7 8 8 8 8 8 8 8 7 6 6 6 6 6 5 5 6 6 7 8 9 10 10 10 11 11 11 11 11 11 12 12 12 11 11
7 8 8 8 7 7 7 8 8 8 8 8 8 9 9 8 8 7 7 7 7 8 7 5 5 7 8 8 8 9 10 10 11 11 11 11 11 11 11 11 11 11 11 11
8 8 8 7 7 8 9 8 8 8 8 8 9 9 9 9 8 7 7 7 7 7 6 6 7 8 8 8 8 9 10 10 10 11 10 10 11 11 11 11 11 11 11 11
9 8 8 8 9 8 8 8 8 9 9 9 9 10 9 6 6 7 7 8 7 6 6 7 8 8 8 9 9 9 10 10 11 11 11 11 11 11 11 12 12 12 12 12
8 8 9 9 8 9 8 8 8 8 9 9 9 9 8 7 6 6 6 8 7 6 7 7 8 8 9 9 10 10 10 11 11 11 11 12 12 12 12 12 12 12 12 12
8 8 8 9 9 9 8 8 8 8 9 9 10 9 9 9 7 8 9 7 7 7 7 8 7 8 9 10 10 10 11 11 11 11 11 12 12 12 12 12 12 12 11 10
8 8 8 8 9 9 10 9 9 8 8 8 9 9 9 10 9 8 7 6 6 7 8 8 8 9 9 10 10 10 11 11 11 11 12 12 12 12 12 13 12 11 10 11
8 8 9 9 10 9 9 9 8 9 9 9 9 9 8 8 9 9 8 8 7 7 8 8 8 9 10 10 10 10 11 11 11 11 12 12 12 12 12 12 11 11 10 10
8 8 8 8 9 8 9 8 8 9 9 9 9 8 8 8 8 9 8 8 9 8 9 9 9 9 10 10 10 10 11 11 11 11 11 11 11 11 11 10 10 10 9 9
8 8 8 9 8 8 8 8 9 9 9 9 10 9 9 8 8 9 9 9 9 9 9 9 9 9 9 10 10 11 11 11 11 11 11 11 11 10 10 10 10 10 10 9

GFSNGP_con_lsi_021.txt.gz
Lid_Strength_Index
14 14 14 14 15 14 15 15 17 15 14 11 8 7 5 5 4 5 4 4 3 3 3 3 2 2 2 1 1 1 2 3 4 5 5 5 5 5 4 4 4 5 5 6
16 14 14 16 14 14 14 14 14 13 13 7 6 5 5 5 5 5 5 4 3 3 3 3 2 2 2 2 2 1 2 3 4 5 6 6 6 6 5 4 5 5 6 6
18 15 15 17 15 14 13 12 12 13 10 6 6 6 6 5 5 5 4 4 4 3 3 3 2 2 2 2 2 2 2 2 4 6 6 6 6 6 5 5 5 5 6 6
18 16 21 14 11 11 12 12 8 8 7 6 6 5 5 4 4 4 4 4 3 3 2 2 2 2 1 2 2 2 2 2 3 6 7 7 7 7 6 5 5 6 6 6
18 18 16 14 12 12 12 13 7 7 7 6 5 5 5 4 3 3 3 3 3 2 2 2 2 1 2 2 2 2 2 2 3 5 7 7 7 7 7 6 6 6 6 7
16 19 21 14 11 9 9 14 6 7 7 7 6 11 8 4 3 3 3 2 2 2 2 2 2 1 2 2 2 2 2 2 2 4 7 8 7 7 7 6 6 6 7 7
15 16 15 10 9 7 14 12 6 6 6 6 8 7 5 3 3 2 2 2 2 2 2 2 1 1 2 2 3 2 2 2 3 5 6 8 7 6 7 7 6 7 7 7
15 16 17 7 8 10 7 5 5 5 5 6 6 5 4 4 3 3 3 2 2 2 2 2 1 2 2 3 2 1 2 3 4 5 7 7 7 7 7 7 7 7 8 8
13 13 9 7 6 5 4 5 5 5 5 5 5 5 4 4 3 3 3 3 2 2 2 2 2 2 2 2 2 3 3 4 5 5 6 6 7 8 8 7 8 8 9 10
12 10 9 7 5 4 4 5 4 4 4 4 5 4 4 4 3 3 3 3 2 2 3 3 2 2 2 2 1 3 4 4 5 5 4 6 6 7 8 8 8 8 9 10
12 10 9 6 5 4 4 4 4 4 4 4 4 4 4 4 3 3 3 2 2 3 3 3 2 2 2 3 2 4 5 5 5 5 6 7 7 7 8 7 7 9 9 10
13 8 8 6 5 5 5 5 5 5 4 3 3 4 3 3 3 3 3 2 3 3 2 2 2 2 2 3 3 5 6 7 6 6 7 8 8 8 7 7 6 7 7 8
9 6 5 5 4 4 6 5 5 5 5 5 4 4 4 4 4 3 3 3 3 3 2 2 2 2 3 3 4 6 7 7 7 7 8 9 9 9 10 8 7 7 7 7
5 5 7 6 7 6 6 5 5 5 5 5 5 4 5 5 4 4 4 4 4 4 4 4 4 4 3 3 5 6 7 8 8 9 9 9 8 10 10 11 11 10 9 9
6 5 6 6 6 7 6 6 7 7 6 6 6 6 6 6 6 5 4 4 5 5 5 5 5 5 5 4 6 6 9 9 10 10 8 9 10 10 10 10 11 10 9 9
7 7 7 8 8 8 8 7 8 8 7 7 7 7 7 6 7 6 5 5 6 6 5 5 6 5 6 5 6 7 9 9 9 10 9 9 9 10 10 10 10 11 11 10
9 9 9 9 9 8 8 8 8 8 8 8 8 7 7 8 8 8 7 6 6 5 5 5 6 6 6 5 6 7 9 9 10 10 11 10 10 10 10 11 11 11 10 10
7 7 7 8 9 9 9 9 8 8 8 8 8 8 9 9 9 8 8 7 6 6 6 5 6 6 5 6 7 7 8 8 9 11 11 11 11 10 10 11 11 11 10 10
7 8 8 8 8 8 9 9 8 8 8 8 8 9 9 8 8 8 7 7 7 7 7 7 6 7 8 7 8 8 9 9 9 9 10 10 10 11 11 11 11 11 11 11
8 7 8 8 8 8 9 8 8 8 8 8 8 9 9 8 6 6 6 7 7 7 7 6 7 8 7 7 8 9 9 10 10 10 10 10 11 11 11 11 11 11 11 11
8 8 8 9 8 8 9 8 8 8 8 8 9 9 9 7 6 5 6 8 7 6 7 7 8 8 7 7 8 9 10 10 10 10 10 11 11 11 12 12 12 12 12 12
8 8 8 8 8 9 8 8 8 8 8 9 8 9 9 9 8 7 7 8 7 6 7 7 8 7 8 8 9 9 10 10 11 11 11 11 12 12 12 12 12 12 12 12
8 8 8 9 9 9 9 8 8 8 8 9 9 9 9 10 9 10 8 7 6 6 7 8 7 8 8 9 9 10 10 11 11 12 12 12 12 12 12 12 12 12 12 12
7 7 8 8 8 9 10 9 8 8 8 8 8 8 9 10 9 8 7 6 6 7 8 8 8 8 9 10 10 10 11 11 11 11 12 12 12 12 13 13 13 12 11 10
7 7 8 8 9 9 9 8 8 8 8 8 8 8 8 8 9 8 8 8 7 7 8 8 8 9 9 10 10 11 11 11 11 11 12 12 12 12 12 13 12 11 10 10
7 8 7 8 8 8 8 8 8 8 9 9 8 8 8 8 8 8 8 8 8 8 8 8 9 9 9 10 10 10 11 11 11 11 11 12 12 12 12 12 11 10 10 9
7 7 8 8 8 8 8 8 9 9 8 9 9 9 9 8 8 9 9 9 9 9 9 9 9 9 9 10 10 10 11 11 11 11 11 11 11 12 11 11 11 10 10 10

GFSNGP_con_lsi_024.txt.gz
Lid_Strength_Index
15 14 15 15 15 15 16 16 18 17 16 13 12 12 10 8 7 5 5 4 4 4 4 4 3 3 2 2 2 2 2 2 2 2 1 2 5 5 6 5 5 5 6 6
17 15 15 16 15 15 15 14 15 14 15 10 10 10 9 7 6 6 5 5 4 4 3 3 3 3 3 2 2 2 2 3 2 2 2 2 5 5 6 6 6 6 6 7
20 16 16 18 15 14 14 13 13 16 13 10 10 8 8 6 6 5 5 4 4 4 3 3 3 2 3 2 2 2 2 2 2 2 2 3 3 5 6 6 6 7 7 7
18 17 23 14 12 12 14 13 11 11 10 9 8 7 6 5 5 5 4 4 4 4 3 3 2 2 2 2 2 3 2 2 2 2 3 3 4 6 5 7 7 7 7 8
19 19 16 14 13 13 14 15 11 11 9 8 6 6 7 4 4 4 4 3 3 3 3 2 2 2 2 2 2 3 2 2 2 2 3 3 5 6 6 7 7 7 7 8
17 20 22 14 12 10 11 17 10 9 8 7 7 11 9 5 4 4 3 3 3 3 3 3 2 2 2 3 3 3 2 2 2 2 3 4 5 7 6 6 7 7 8 8
16 18 15 11 11 10 18 16 9 8 7 7 9 7 5 4 4 3 3 3 3 3 3 3 2 2 3 3 3 3 2 2 2 3 4 3 5 7 6 6 7 7 9 8
16 18 19 10 11 13 10 9 7 6 6 6 6 5 5 4 4 4 4 3 3 3 3 3 2 3 3 3 2 2 2 2 3 3 3 3 6 8 7 6 7 7 9 9
15 15 11 9 10 8 7 7 7 6 6 6 6 6 5 5 5 4 4 3 3 3 4 3 3 3 4 3 2 2 3 3 3 3 4 5 7 9 8 7 7 8 9 10
13 12 11 10 9 8 6 6 5 5 5 5 6 6 6 5 5 4 4 4 3 4 4 4 3 3 3 3 2 3 4 4 3 4 5 5 4 7 7 7 7 8 9 10
13 11 10 10 9 8 7 6 5 5 5 6 6 6 6 6 6 6 5 4 4 4 4 4 4 3 3 3 3 3 4 3 4 5 6 5 5 6 6 7 7 8 9 10
14 11 11 10 8 7 7 6 6 7 7 7 7 8 7 8 7 7 7 6 5 5 5 5 4 4 4 4 3 4 4 4 5 6 7 5 5 7 5 6 6 6 7 8
11 9 9 8 7 6 7 7 7 8 8 9 8 8 8 8 7 6 6 7 7 6 5 4 4 5 4 4 3 4 4 4 6 6 6 6 7 7 8 8 6 6 6 6
8 8 10 9 10 8 8 8 7 7 8 8 8 7 7 8 7 7 7 7 7 6 5 5 5 5 4 4 5 5 4 5 6 6 7 7 7 7 8 9 10 9 7 7
9 9 10 9 9 8 8 8 9 9 9 9 8 8 8 8 8 8 7 7 7 7 6 5 6 5 5 5 6 7 6 6 7 8 8 7 7 8 9 10 10 11 10 9
9 10 10 10 10 9 9 9 10 10 10 9 9 9 8 7 7 7 7 7 8 8 6 6 6 5 5 6 7 6 6 7 9 9 7 8 9 10 11 11 11 11 11 11
11 12 12 12 11 9 9 9 9 10 9 9 8 8 8 7 7 8 8 7 7 6 6 6 6 6 6 6 6 7 8 9 8 8 8 9 10 10 11 11 11 11 11 10
10 10 11 10 10 9 9 9 9 9 9 8 8 8 8 8 8 7 6 6 6 6 6 6 7 6 6 6 7 6 9 10 10 10 10 10 10 11 11 11 11 11 11 10
10 10 10 9 8 9 9 9 9 9 9 8 8 9 8 8 7 7 5 6 7 8 8 7 6 7 8 7 7 7 9 10 10 10 10 10 11 11 11 11 11 11 11 11
10 10 10 9 8 8 9 9 9 9 9 8 8 9 9 8 8 8 7 8 8 7 7 7 7 7 7 7 7 8 9 10 10 10 10 11 11 11 11 11 11 11 12 12
11 10 10 9 8 8 9 9 10 10 9 8 9 9 9 9 9 8 8 9 7 7 7 7 7 7 7 8 8 9 9 10 10 10 11 11 11 12 12 12 12 12 12 13
10 10 9 8 8 9 9 9 9 9 9 9 9 9 9 9 9 8 7 8 7 6 7 7 7 7 7 8 9 9 10 10 11 11 11 12 12 13 13 13 13 13 13 13
10 10 9 8 8 9 9 9 10 9 10 9 9 9 10 9 9 10 10 7 7 7 7 7 7 7 7 9 9 10 11 11 12 12 12 12 13 13 13 13 12 12 13 13
10 9 8 7 8 8 10 9 9 9 9 9 9 9 9 9 9 8 8 7 6 7 7 7 7 7 8 10 10 10 11 11 12 12 12 12 13 13 13 13 13 13 13 13
9 9 8 8 8 9 9 9 9 10 9 10 10 10 9 8 9 9 8 8 7 8 8 7 7 8 9 10 10 11 11 11 11 12 12 13 13 13 13 13 13 12 12 12
9 8 7 7 7 8 8 9 9 9 10 11 11 10 10 10 9 9 9 8 9 9 9 9 8 9 9 10 10 10 11 11 11 12 12 12 13 13 13 13 13 12 11 10
8 7 7 8 7 8 8 8 9 9 9 10 11 10 10 10 11 10 9 10 9 10 10 10 10 9 10 10 10 10 11 11 11 11 12 12 12 13 13 13 12 10 10 10

GFSNGP_con_lsi_027.txt.gz
Lid_Strength_Index
17 16 16 16 16 16 17 17 19 17 16 14 13 14 13 11 9 9 8 7 6 5 5 5 4 4 4 3 2 2 2 2 2 3 1 1 2 2 1 1 2 2 3 4
19 16 16 17 16 16 16 15 15 15 16 13 12 11 10 10 8 8 7 6 5 4 4 4 4 5 3 3 3 2 2 2 2 2 2 2 1 1 1 2 3 3 4 5
24 17 17 20 16 16 15 14 15 17 14 12 11 11 10 9 7 7 6 5 5 4 4 4 4 3 4 3 2 3 2 2 3 2 2 2 2 2 2 2 3 4 4 5
23 20 26 16 13 13 14 13 13 13 12 11 11 10 9 7 7 6 5 5 4 4 3 4 3 3 3 3 3 3 3 3 2 2 2 2 3 3 3 3 4 5 5 5
24 24 19 16 14 14 15 15 12 13 11 11 11 10 10 6 5 5 5 4 4 3 3 4 3 3 3 3 3 3 3 3 3 2 2 3 3 3 4 4 5 5 5 5
20 26 27 17 12 11 12 18 12 11 11 11 10 13 10 6 5 5 4 4 4 3 3 4 3 3 3 3 3 4 3 3 2 2 2 3 3 3 4 4 5 5 6 6
19 23 19 13 11 11 20 18 11 11 10 10 11 9 7 6 6 5 5 4 4 3 4 4 3 3 4 4 4 3 3 2 3 2 2 3 3 3 4 4 6 6 6 6
20 23 21 11 12 16 13 11 10 10 10 10 8 7 6 6 6 6 6 5 4 5 5 4 3 3 4 4 3 3 3 3 3 3 3 3 3 4 5 5 7 6 6 7
18 18 13 12 11 10 10 10 10 10 9 8 8 7 7 7 8 8 7 7 6 7 7 6 5 4 4 3 3 3 4 4 4 4 3 3 3 5 5 6 7 7 7 8
17 14 13 11 10 10 9 10 9 9 8 7 8 8 9 9 9 9 8 8 7 7 7 7 6 6 4 4 3 4 5 5 5 4 4 3 4 5 5 5 7 7 8 9
16 13 12 11 11 10 9 9 9 9 8 8 9 9 9 9 9 8 8 7 7 7 7 7 6 6 4 4 4 5 5 5 4 4 3 4 5 6 5 5 6 7 7 9
16 13 13 13 10 9 10 10 11 10 10 8 8 9 9 9 8 8 7 7 7 7 7 7 6 6 5 3 4 5 6 5 5 4 3 5 7 6 4 4 5 5 6 8
13 11 11 10 9 10 11 11 10 9 9 9 8 9 9 8 8 6 7 7 7 7 7 7 7 5 5 4 5 5 5 5 5 4 4 6 6 7 8 6 5 5 6 6
10 11 13 11 12 11 11 10 9 9 8 8 9 8 8 8 7 7 7 7 7 7 7 7 6 6 4 4 4 5 5 4 5 4 5 6 6 7 8 8 9 8 6 6
10 11 12 12 12 11 10 11 10 9 9 9 9 9 8 8 8 7 6 6 6 6 6 6 6 6 5 5 5 6 7 7 6 6 7 7 7 7 8 8 9 9 8 7
11 12 12 12 12 12 12 11 10 10 9 9 9 9 8 8 7 7 7 6 6 7 7 6 6 6 6 6 6 7 6 6 6 7 8 7 6 9 9 9 9 9 9 9
14 14 14 14 13 12 12 10 10 9 10 10 9 8 8 8 8 8 8 7 7 6 7 7 7 6 6 6 6 7 7 8 6 6 6 7 8 9 10 10 10 10 10 9
12 12 12 13 12 11 11 10 9 9 10 10 9 9 9 9 10 9 9 8 8 8 7 7 6 7 6 6 6 7 9 9 7 7 8 8 9 10 10 10 10 11 10 10
11 12 12 11 11 10 11 10 9 9 9 9 9 10 10 9 9 9 8 8 9 9 8 6 6 7 7 6 7 8 10 10 9 8 9 9 10 10 10 11 11 11 11 11
12 11 11 11 9 10 10 9 9 9 9 10 9 9 10 9 9 9 8 9 8 8 6 6 7 7 8 7 7 8 10 10 10 10 9 10 10 11 11 11 11 11 11 11
12 11 11 10 10 10 10 9 9 10 9 10 10 10 10 10 9 9 9 9 8 7 6 6 7 7 7 8 8 8 9 9 10 11 11 11 11 11 12 12 11 11 12 12
12 11 11 10 10 10 10 9 9 9 10 10 10 10 10 10 9 9 8 9 7 6 7 7 7 7 7 8 9 9 10 11 11 11 11 12 12 13 13 13 13 12 13 12
11 11 10 10 10 10 9 9 9 9 10 11 11 11 11 10 9 10 11 8 7 7 7 7 7 7 8 9 10 10 10 11 12 12 12 12 12 12 13 13 13 13 13 12
11 11 9 9 9 10 10 9 8 8 10 10 11 10 11 11 10 9 9 8 7 8 8 7 7 7 8 10 10 11 11 11 12 12 12 12 13 13 13 13 13 13 13 13
11 10 9 9 10 10 9 8 8 8 10 11 11 11 10 10 11 10 10 9 8 9 9 8 7 8 9 10 10 11 11 11 12 12 13 13 13 13 13 13 13 13 13 12
11 9 9 9 9 9 8 8 9 8 9 12 13 11 11 10 11 11 11 10 10 10 10 10 9 9 9 10 10 11 11 11 12 12 12 13 13 14 14 13 13 13 13 13
10 8 9 9 9 8 8 8 8 10 10 11 12 11 11 11 11 11 11 12 12 11 11 11 11 10 10 10 10 10 11 11 11 12 13 13 13 14 13 13 13 12 12 11

GFSNGP_con_lsi_030.txt.gz
Lid_Strength_Index
18 17 17 17 17 17 18 17 20 18 17 15 13 14 13 12 11 10 10 9 8 8 8 7 7 6 6 5 5 4 4 4 3 3 3 2 2 1 1 2 2 1 2 2
20 17 17 18 16 16 16 16 16 16 16 13 13 12 12 11 11 10 10 9 8 7 5 5 5 4 5 6 5 4 4 3 3 3 3 3 2 2 2 1 1 1 2 2
24 19 19 21 18 16 16 15 15 18 15 13 13 12 12 11 11 10 9 8 7 6 5 5 4 4 5 5 5 4 4 3 3 3 3 3 2 2 2 2 2 3 2 2
24 21 26 18 15 14 15 14 13 13 13 12 12 11 10 9 10 9 8 7 6 5 5 5 4 4 4 4 4 4 4 3 3 3 3 3 2 2 3 3 3 3 3 3
25 25 20 17 15 15 16 16 13 13 13 12 11 10 11 9 8 8 7 6 5 5 5 5 5 4 4 4 4 4 4 4 3 3 4 4 4 3 3 3 3 3 4 3
21 27 27 18 14 13 13 19 13 13 12 12 11 15 13 10 9 8 6 6 6 6 6 6 5 5 5 5 5 5 4 4 3 3 4 4 4 3 3 3 3 3 4 4
20 25 20 15 13 12 20 19 13 12 12 12 13 12 10 9 8 7 7 7 7 7 7 7 6 6 6 6 6 5 4 4 3 3 4 4 4 4 3 4 4 5 5 5
21 24 23 13 14 16 15 13 11 11 11 11 11 10 10 10 9 8 9 8 8 7 7 6 6 6 7 7 5 5 5 4 4 4 4 3 4 4 4 4 4 6 7 7
18 19 14 13 13 12 11 11 11 11 10 10 11 11 11 10 9 9 9 8 7 7 7 6 6 6 6 6 6 6 6 5 4 5 5 5 5 5 4 4 6 7 7 7
17 15 14 13 12 11 10 10 10 10 11 11 12 11 11 10 9 9 8 8 7 7 7 7 6 6 6 6 5 6 6 5 5 6 5 5 4 3 4 5 7 7 6 7
17 15 14 13 13 11 10 10 11 11 11 11 11 12 10 10 10 8 8 7 6 6 7 7 6 6 6 5 5 5 5 5 6 6 6 5 4 4 4 5 6 7 6 7
16 14 14 14 12 10 11 12 12 12 12 11 11 10 9 10 9 8 7 7 7 6 6 6 6 5 5 5 5 5 5 5 5 5 5 5 5 4 4 4 5 5 5 6
14 13 13 12 10 12 13 12 11 11 11 11 10 9 9 10 9 7 7 7 8 8 7 6 6 6 6 5 5 5 5 5 5 5 6 6 6 6 7 6 6 5 5 5
12 13 14 12 14 13 12 11 10 11 11 11 10 9 9 9 9 9 9 8 8 7 7 7 7 7 7 6 6 6 6 5 5 5 6 6 6 6 6 9 9 7 5 6
12 12 12 13 13 13 12 12 12 12 11 11 9 9 10 9 9 9 8 8 8 8 7 7 7 7 6 6 6 6 6 7 6 6 6 6 6 7 8 9 8 8 7 7
12 12 13 13 14 14 14 13 13 11 11 11 10 10 10 9 9 8 8 8 8 9 8 7 7 7 6 6 6 6 7 6 6 6 6 7 7 8 9 8 8 8 9 8
13 14 14 15 14 14 14 12 11 11 11 11 10 10 10 10 9 9 8 8 7 7 7 7 7 6 6 6 7 8 8 7 5 5 6 6 7 8 8 8 9 9 9 8
11 13 13 13 13 13 12 12 11 10 11 10 9 10 10 10 10 10 9 8 8 8 7 7 6 7 6 6 7 8 9 7 7 7 6 7 9 9 9 9 10 10 10 10
12 12 13 12 13 13 12 11 10 10 11 10 9 10 11 10 10 9 9 9 9 9 8 7 6 7 7 6 7 8 9 8 7 7 7 9 10 10 9 10 10 11 11 11
12 12 12 12 11 11 11 10 10 10 10 9 10 11 12 10 9 9 9 10 9 8 7 7 7 7 7 7 6 8 8 9 9 8 9 10 10 10 10 11 11 11 11 11
12 12 12 12 12 11 10 10 10 10 10 10 11 12 12 11 9 10 10 10 8 7 7 7 7 8 8 8 8 9 10 10 10 10 11 11 11 11 11 11 11 11 11 11
12 12 12 12 12 11 10 10 10 10 10 11 10 11 12 12 11 10 9 10 8 7 7 7 8 7 8 8 9 10 10 11 11 11 11 12 12 12 12 12 12 12 12 11
12 12 12 12 11 10 9 9 10 10 10 11 11 12 13 12 11 11 12 9 8 8 8 8 7 7 8 9 9 10 11 11 12 12 12 12 12 12 12 12 12 12 12 12
12 12 11 11 10 9 10 9 9 9 9 10 10 11 12 14 13 11 11 9 9 9 9 8 8 7 8 10 10 10 11 11 12 12 12 12 13 13 13 13 13 13 13 13
12 11 11 11 10 10 9 9 9 9 8 10 11 11 11 12 13 12 12 11 10 10 10 9 8 8 9 10 10 10 11 12 12 13 13 13 13 13 13 13 13 13 13 13
12 11 11 10 9 9 9 9 10 9 9 12 12 11 12 12 11 11 12 11 12 11 11 11 11 10 10 10 10 11 11 11 12 13 13 14 14 14 13 13 13 13 13 13
11 9 10 9 8 8 9 9 9 9 10 11 12 11 11 12 12 11 11 12 12 12 12 12 12 11 11 11 11 11 11 12 12 13 13 14 14 14 13 13 12 12 13 13

GFSNGP_con_lsi_033.txt.gz
Lid_Strength_Index
19 18 18 18 18 18 19 19 21 19 19 16 14 14 13 13 12 11 11 10 10 9 8 8 8 7 6 6 5 5 6 6 6 5 5 5 4 3 3 3 2 2 2 2
20 18 18 19 17 17 17 17 17 17 17 13 12 14 13 12 12 12 11 10 9 8 8 8 7 6 5 5 5 5 6 7 6 5 4 4 4 3 3 3 2 1 2 2
24 20 20 21 19 18 18 17 16 18 15 15 15 14 13 12 11 11 10 10 9 9 8 7 6 5 6 5 5 5 5 6 5 4 4 4 4 3 3 3 3 2 3 2
24 22 26 18 16 16 17 16 15 15 14 14 13 13 12 10 10 10 10 10 9 9 8 7 6 6 6 5 5 5 5 5 5 5 5 4 4 4 4 4 4 3 3 3
25 25 21 18 17 17 18 18 14 14 14 14 13 12 12 10 10 10 10 9 9 8 8 8 7 6 6 6 5 5 5 5 5 5 5 5 5 5 4 4 4 3 3 3
22 28 27 19 16 14 15 20 15 14 14 14 13 17 14 11 10 10 10 10 9 8 8 7 6 6 6 6 6 6 5 5 5 5 5 5 5 5 4 4 4 3 3 3
22 26 21 16 15 14 21 19 14 14 13 13 15 14 12 10 10 10 10 9 8 8 8 7 6 6 7 7 7 6 5 5 5 4 5 5 4 4 5 5 5 5 4 4
22 25 23 14 15 17 15 15 13 13 12 13 12 12 12 11 11 11 10 9 9 8 8 7 6 6 6 6 6 6 6 6 6 6 5 5 5 6 6 6 6 5 4 4
19 19 14 14 15 13 13 13 13 13 12 12 13 13 12 12 12 11 10 9 8 8 8 7 7 6 7 6 5 5 5 5 6 6 6 5 6 6 6 6 5 4 5 6
16 16 15 14 13 13 12 12 12 12 13 13 13 12 12 12 11 11 10 9 9 8 9 8 7 7 7 6 5 5 5 5 5 5 6 6 6 5 6 5 5 5 5 7
16 15 14 14 14 13 11 11 12 13 12 12 13 12 12 12 12 10 9 8 8 9 8 8 8 7 6 6 6 6 6 6 5 5 5 6 6 6 5 5 4 5 6 7
16 14 15 15 13 11 12 13 13 13 13 12 12 12 12 12 11 9 9 8 8 8 8 8 7 7 6 6 6 7 7 6 5 5 5 5 5 6 3 3 3 4 5 5
13 14 13 13 12 12 13 13 12 12 12 13 12 11 11 11 10 8 9 8 8 8 8 7 7 7 6 6 6 7 8 6 6 5 6 6 6 6 7 5 5 5 5 3
13 13 14 12 13 13 12 12 12 12 12 12 12 11 11 11 10 10 9 8 8 8 8 7 7 7 7 6 6 6 7 5 6 5 5 6 6 7 6 8 9 8 4 4
12 12 12 12 13 13 12 13 13 13 13 12 11 11 11 11 10 10 9 8 8 8 8 7 7 7 7 6 7 7 7 7 6 6 6 6 7 7 8 8 9 7 6 5
12 12 13 14 14 13 14 13 14 14 13 12 11 11 11 10 9 9 9 8 9 9 8 7 7 7 7 6 7 7 7 5 5 5 6 6 7 8 9 9 8 7 7 7
13 14 15 15 14 14 14 13 13 13 12 12 12 11 11 10 10 10 9 8 8 8 8 7 7 7 7 6 7 8 7 6 5 6 6 6 7 8 8 7 8 7 7 7
10 12 12 13 14 14 14 13 12 13 12 11 11 11 11 11 10 10 9 8 8 8 7 7 6 7 7 7 7 7 7 7 7 7 7 8 8 8 8 9 9 10 9 9
11 12 13 12 13 13 13 13 12 12 11 11 11 12 12 11 10 10 9 9 9 10 8 7 6 7 7 7 7 7 8 8 8 8 9 8 9 9 9 9 10 10 10 11
13 12 12 12 12 12 12 12 12 11 10 10 12 12 13 11 11 10 10 10 10 9 7 7 7 8 8 8 7 8 8 9 9 9 9 10 10 10 10 10 11 11 11 11
12 12 12 12 12 12 11 11 10 11 10 11 13 13 13 11 11 11 11 11 10 8 8 7 8 8 8 8 9 8 9 9 10 11 11 11 11 11 11 11 11 11 12 12
12 12 12 12 12 12 12 11 10 10 10 10 12 12 12 12 12 12 11 11 10 7 8 9 8 7 8 8 9 10 10 10 11 11 12 12 12 12 12 12 12 11 11 11
12 12 12 12 12 12 11 11 10 9 10 10 12 12 12 12 12 14 13 11 10 9 10 9 7 7 8 9 10 11 11 11 12 12 12 12 12 12 12 12 12 12 12 11
12 12 12 11 11 11 12 11 9 9 9 9 10 11 11 13 13 12 12 10 9 9 10 9 8 8 8 10 10 11 11 12 12 13 13 12 13 13 12 12 13 12 12 12
12 12 11 12 12 12 12 9 9 9 9 10 11 11 10 11 13 12 12 12 10 10 11 10 9 9 10 10 10 11 11 11 12 13 13 13 13 13 13 13 12 12 12 12
12 11 11 11 11 11 11 9 10 9 10 11 13 11 11 11 12 12 12 11 12 11 12 12 12 11 11 10 10 11 11 11 12 12 13 13 13 13 12 12 13 13 13 13
11 9 11 11 10 10 10 9 9 10 9 11 12 11 11 11 12 11 11 12 13 13 13 12 12 12 12 11 11 11 11 11 11 12 13 14 14 14 13 13 13 13 13 13

GFSNGP_con_lsi_039.txt.gz
Lid_Strength_Index
18 18 18 18 17 17 17 16 17 15 17 15 14 14 13 13 13 12 12 11 10 10 10 10 9 9 9 8 8 8 7 7 7 6 5 5 5 4 3 3 2 2 3 3
19 17 17 18 17 16 17 16 17 16 17 13 13 13 14 13 13 12 11 11 10 11 10 10 10 10 9 9 8 7 7 7 7 7 6 6 5 5 3 3 3 2 3 3
20 19 19 20 18 17 16 16 16 18 15 14 15 14 13 13 12 12 11 11 11 11 11 10 10 9 9 8 8 7 7 7 7 7 7 6 6 5 4 3 3 2 3 3
20 19 21 15 15 15 16 15 15 15 14 14 14 13 12 11 11 11 12 12 11 11 11 10 9 9 8 8 7 7 7 7 7 7 7 7 6 6 4 3 4 3 3 3
21 22 18 16 16 16 17 16 14 14 13 13 13 13 12 11 11 11 11 11 11 10 10 10 9 8 8 8 7 7 7 7 7 7 7 7 7 6 5 4 4 4 3 3
21 23 23 16 14 13 13 17 13 13 13 13 13 14 12 11 11 11 11 10 11 10 10 10 8 8 8 8 7 8 8 7 6 6 6 7 7 6 4 4 4 4 4 3
18 20 18 14 13 12 17 14 13 12 12 12 12 11 11 10 11 11 11 11 10 10 10 9 8 8 8 8 8 7 7 6 6 6 6 6 6 5 4 4 5 4 4 4
18 20 20 12 13 14 12 12 12 12 11 11 11 11 11 11 12 11 11 11 10 10 10 8 8 8 8 8 7 7 6 6 6 6 6 6 5 4 4 4 6 6 6 5
16 16 12 11 11 10 11 11 11 11 10 11 11 12 12 12 12 12 11 11 10 10 10 8 7 7 8 7 7 7 7 7 6 6 6 6 5 5 5 5 5 5 5 5
15 13 12 11 10 10 11 11 10 10 10 11 12 12 12 12 12 12 11 11 10 10 10 9 8 7 7 7 7 7 7 7 6 6 6 5 5 4 5 5 5 6 5 5
15 12 11 10 10 10 10 10 10 10 11 12 12 12 12 12 12 12 11 10 10 10 9 9 7 7 7 7 7 7 7 6 6 6 6 5 4 4 4 4 5 6 6 7
12 9 11 10 10 10 11 10 10 11 12 12 12 12 12 12 11 11 11 11 10 9 9 8 8 8 7 7 7 7 7 6 6 6 5 5 5 6 4 4 4 5 4 5
10 9 11 10 10 9 10 10 10 11 11 12 11 11 11 12 11 10 11 11 10 9 9 8 8 8 8 7 7 7 7 6 6 6 6 7 6 7 8 6 5 5 5 5
9 10 11 10 10 10 10 10 9 11 11 11 11 11 11 12 11 11 11 10 10 9 8 8 8 8 8 7 7 7 7 6 7 7 7 7 7 8 8 9 9 8 6 5
10 10 9 9 10 10 11 11 11 12 12 12 11 12 12 12 12 11 10 10 10 10 8 9 9 8 7 7 7 7 7 7 7 7 8 7 7 7 8 8 9 8 5 4
10 10 10 11 11 11 12 12 12 12 12 12 12 12 11 11 11 11 11 10 10 10 9 9 9 8 7 7 7 7 8 7 7 8 9 8 7 8 8 8 8 7 7 7
10 10 11 12 12 12 12 11 11 12 12 12 12 11 11 11 11 11 11 10 10 9 9 9 9 8 7 7 7 8 9 9 8 9 9 9 8 8 7 7 7 7 7 7
9 9 9 10 11 12 12 11 11 11 12 11 11 11 12 12 12 12 11 10 10 10 9 9 8 7 7 7 7 8 9 9 10 10 10 10 9 8 8 8 8 9 9 8
9 10 10 10 10 11 11 11 11 11 11 11 11 12 12 12 12 11 11 11 11 11 10 9 7 8 7 7 7 9 10 10 10 10 10 9 9 8 8 8 9 9 9 9
9 9 10 10 10 11 11 11 11 11 10 11 11 12 12 12 11 11 11 11 11 11 9 9 9 8 8 8 7 9 10 10 10 10 10 10 10 9 9 9 10 10 10 10
8 9 10 10 10 10 10 11 11 11 10 11 11 10 12 11 11 11 11 11 10 9 8 9 9 8 8 8 8 10 10 11 11 11 10 10 10 11 10 10 10 10 10 10
9 10 10 11 11 11 11 10 11 10 10 10 10 9 11 11 11 11 11 11 9 8 9 10 10 8 8 8 10 10 11 11 11 11 11 11 11 12 12 12 11 10 10 10
9 10 10 10 11 10 10 11 11 10 10 10 10 9 10 10 10 11 12 10 9 9 10 11 9 8 8 9 10 11 11 12 12 12 12 12 12 12 12 12 12 11 11 11
9 10 10 10 10 11 11 11 11 10 10 9 9 8 10 10 10 10 10 9 8 9 10 10 9 9 9 10 10 11 11 12 12 12 12 11 12 12 12 12 12 11 11 11
9 9 9 10 11 10 10 11 11 10 10 9 9 8 9 9 10 10 10 9 9 10 11 10 10 10 11 11 11 11 11 11 12 12 12 12 12 12 13 12 12 12 11 11
10 9 9 9 9 9 10 11 11 10 10 10 9 9 9 10 10 10 10 9 10 10 11 11 11 11 11 11 11 11 11 11 12 12 12 12 12 12 12 12 12 12 12 12
9 8 9 10 9 9 10 10 11 11 9 9 9 9 10 10 10 9 9 10 10 11 11 11 12 11 11 12 12 11 11 11 12 12 13 13 12 12 12 12 12 12 12 11

GFSNGP_con_lsi_042.txt.gz
Lid_Strength_Index
13 14 15 15 14 14 14 13 15 12 12 11 10 10 10 10 10 10 10 9 9 8 9 8 8 8 7 7 7 7 7 7 6 6 5 5 5 5 5 5 5 4 4 3
15 15 15 16 14 13 14 14 13 13 13 10 10 10 11 10 10 10 10 9 9 9 9 9 9 8 7 7 7 6 6 6 6 5 5 5 5 6 6 6 5 5 5 3
15 16 16 16 13 13 13 13 13 14 11 10 11 10 10 9 9 10 9 9 9 9 9 9 8 8 8 7 7 7 7 7 6 6 5 6 6 6 6 6 5 5 4 3
16 15 17 13 11 12 13 12 11 11 10 9 9 9 9 8 9 9 9 9 9 9 9 8 8 8 7 8 8 7 7 7 5 5 6 6 6 6 5 5 5 5 4 3
16 16 14 12 12 13 13 12 9 10 9 8 9 9 8 8 8 8 8 9 9 8 8 8 8 8 8 8 8 8 8 6 6 6 7 6 6 6 6 5 6 4 3 3
15 17 16 10 11 10 11 13 9 9 9 8 9 11 9 8 8 8 8 8 9 8 8 8 8 7 8 8 8 7 7 7 7 7 6 6 6 5 5 5 4 4 3 3
13 15 13 9 10 10 14 11 8 9 8 9 9 8 7 7 8 8 9 9 8 8 9 8 8 8 8 8 8 7 6 6 6 6 6 5 5 5 4 4 3 4 4 4
13 15 16 9 10 12 8 8 8 8 8 8 7 7 7 8 9 9 9 9 9 9 9 9 8 8 8 8 6 6 6 7 6 5 5 5 5 4 4 4 4 5 6 5
11 11 8 8 7 6 7 8 7 8 7 7 7 8 8 9 9 9 9 9 9 9 9 8 8 8 8 7 6 7 7 6 6 5 5 5 4 4 4 4 4 5 5 5
11 9 8 7 6 6 6 7 7 7 7 7 8 8 9 9 9 9 9 9 9 9 9 9 7 8 7 7 7 8 7 7 6 5 5 4 4 4 4 5 5 5 5 6
10 8 8 7 6 6 6 6 7 7 6 7 8 8 9 9 9 9 9 9 9 9 9 9 8 7 6 7 7 8 7 7 7 6 6 6 6 5 5 5 5 6 6 6
11 7 7 8 6 6 7 7 7 7 7 7 8 8 9 9 9 9 9 9 9 9 9 9 8 7 7 7 8 8 8 8 8 7 7 7 7 7 5 5 5 5 5 5
8 7 7 7 7 7 7 6 6 6 6 7 8 8 9 9 9 9 9 9 9 9 9 8 8 8 8 8 7 7 8 8 7 7 8 8 8 8 8 7 6 5 5 5
6 7 8 7 7 6 6 5 6 6 7 8 8 9 9 9 10 10 9 9 9 9 9 8 8 8 8 7 6 7 7 6 8 8 8 8 8 7 7 8 9 8 5 4
7 6 7 6 6 6 6 6 7 8 8 8 8 9 9 10 10 10 9 9 9 9 8 8 8 8 8 6 7 7 8 9 8 9 9 8 8 7 7 8 7 7 6 5
7 6 6 7 7 7 7 8 8 8 8 8 9 9 10 10 9 9 9 9 10 10 8 8 8 8 7 7 7 8 9 7 8 9 9 10 8 7 6 7 7 7 7 7
6 6 7 7 7 7 7 7 7 8 8 9 9 9 9 9 9 9 9 8 9 9 8 8 9 8 6 7 7 9 9 9 8 10 10 9 8 7 7 7 7 8 8 7
4 5 6 6 7 7 7 8 8 8 9 9 9 9 10 10 10 9 9 8 8 9 8 8 8 8 7 7 7 9 9 9 9 9 9 9 8 7 7 8 8 9 9 8
3 4 5 6 7 7 8 8 9 8 8 9 9 10 9 9 9 9 8 9 9 9 9 7 8 8 7 7 7 9 9 10 9 9 9 9 9 9 9 9 9 9 9 9
3 3 5 5 6 7 8 7 7 8 8 8 9 10 10 9 8 8 8 9 9 8 7 8 9 9 7 7 7 9 10 10 10 10 10 10 10 10 10 9 9 10 11 11
3 4 5 6 6 7 7 7 7 8 8 8 9 10 9 9 8 8 9 9 8 7 7 8 8 9 7 7 8 9 10 11 11 11 11 11 11 11 12 10 10 10 11 11
4 4 5 6 7 7 7 7 7 8 8 9 9 8 9 9 8 8 8 8 7 7 7 9 8 8 8 8 9 10 10 11 11 11 11 12 12 12 12 12 11 11 11 11
4 4 5 6 7 7 7 7 8 8 8 8 9 8 8 8 7 8 9 7 7 7 8 9 9 8 8 9 10 11 11 11 11 11 11 12 12 12 11 11 11 11 11 11
4 4 4 5 6 7 7 7 7 7 7 8 7 7 7 8 7 6 7 8 8 7 8 9 9 9 10 10 10 11 11 11 12 12 12 11 12 12 11 11 11 11 11 10
3 4 5 6 7 7 6 6 7 7 8 7 7 7 7 7 7 6 7 7 8 8 9 9 9 10 10 10 10 11 11 11 12 12 12 12 12 12 11 11 11 11 11 11
4 4 5 5 6 6 6 6 7 7 7 7 7 7 7 7 6 7 7 8 8 8 9 9 9 10 10 10 11 11 11 11 11 12 12 12 12 12 11 12 11 11 11 11
4 4 5 5 5 6 6 6 7 7 7 7 7 7 7 7 7 7 8 8 7 8 9 9 9 10 10 11 11 11 11 11 11 11 12 12 12 12 12 11 11 11 11 10

GFSNGP_con_lsi_048.txt.gz
Lid_Strength_Index
12 12 12 13 13 13 14 14 16 14 14 12 11 12 10 10 9 9 9 8 8 8 8 8 9 9 9 9 8 8 8 8 8 7 7 7 7 7 6 6 6 5 5 4
15 12 13 14 13 13 13 12 13 13 13 10 9 9 9 9 8 8 8 8 8 8 8 9 10 10 9 9 8 8 8 8 7 8 8 8 7 6 7 6 5 5 4 4
16 13 13 15 12 12 12 11 11 14 11 9 9 9 9 8 8 8 8 8 8 8 9 10 9 9 9 8 8 8 8 8 8 8 8 7 7 7 6 6 6 5 3 3
16 15 18 12 10 9 10 10 9 9 9 8 9 8 8 8 8 9 8 8 9 9 10 9 9 8 8 8 8 8 9 9 8 8 7 7 7 7 6 6 6 4 4 3
16 16 12 10 10 11 12 12 8 9 9 8 8 8 9 8 8 9 9 8 9 9 9 9 9 8 8 8 8 9 9 9 8 7 8 8 7 7 7 7 6 6 4 4
14 18 19 11 10 8 9 15 8 8 9 9 9 13 11 8 8 8 8 8 9 9 9 9 9 8 9 9 9 9 9 8 7 7 8 7 7 7 7 7 7 6 5 5
14 16 13 8 9 8 15 13 8 8 8 9 11 10 8 7 7 7 7 8 8 8 9 9 8 8 9 9 10 9 8 7 7 8 7 7 7 7 7 7 7 7 6 6
14 16 17 8 9 12 10 8 8 8 8 8 8 7 7 7 7 7 8 8 8 9 9 9 9 9 10 10 9 8 7 7 8 7 7 7 7 7 7 7 8 8 7 7
12 13 7 8 9 7 7 9 9 8 8 8 8 8 7 7 8 8 8 8 8 9 9 9 9 9 10 9 8 7 7 8 7 7 7 7 7 8 8 8 8 8 8 7
11 10 9 8 8 8 7 8 7 7 7 7 8 7 8 7 8 8 7 8 8 9 10 10 9 9 9 8 7 7 8 8 7 8 8 7 7 8 8 9 8 8 8 8
11 10 9 9 8 8 7 6 6 6 6 7 7 7 7 7 7 7 8 9 8 9 10 10 9 9 9 7 7 8 8 8 8 8 8 8 8 8 8 7 5 5 6 6
13 10 11 10 8 7 7 7 7 7 7 6 6 7 7 7 7 8 9 8 9 9 10 9 9 9 8 7 7 8 8 8 8 8 9 9 9 9 6 4 4 4 4 4
10 8 8 8 7 7 7 7 6 7 6 7 6 6 7 7 7 7 9 9 9 9 9 9 9 9 8 7 7 8 8 8 8 9 9 9 9 9 9 6 5 5 4 4
8 8 9 8 8 7 6 6 6 6 6 6 6 6 7 7 8 8 9 9 9 9 9 9 9 9 8 7 7 8 8 7 9 9 9 9 9 7 7 7 8 8 6 5
8 7 8 7 7 6 6 6 7 7 6 6 6 7 7 8 9 9 8 8 8 9 9 9 9 9 7 7 8 8 8 9 8 8 8 8 8 7 7 7 8 8 8 7
8 7 7 7 7 6 6 6 7 7 6 7 7 7 7 8 9 9 8 8 10 10 9 9 9 8 7 7 8 8 8 7 7 8 8 8 8 7 8 8 9 9 9 9
9 9 8 7 7 6 6 6 6 6 6 7 7 7 8 8 9 9 9 9 9 9 9 9 9 8 6 7 8 8 8 9 7 8 9 9 8 8 8 9 9 10 10 8
7 7 6 5 6 6 6 6 6 7 7 7 7 7 8 9 10 10 9 9 9 9 8 8 8 8 7 8 8 8 9 9 9 9 9 9 9 9 9 10 10 11 11 10
6 6 6 5 4 5 5 5 5 6 6 6 7 8 9 9 9 9 9 9 9 10 9 8 7 7 8 7 7 8 9 9 10 9 9 9 10 10 10 11 11 11 11 10
5 5 5 5 3 4 5 5 5 5 5 5 7 8 9 10 9 9 9 9 9 9 8 8 8 9 9 8 8 9 10 10 10 10 10 10 10 11 11 10 11 11 11 11
4 4 4 5 4 4 4 4 5 6 5 6 7 9 10 9 9 9 9 10 8 7 7 7 8 8 8 8 9 9 10 10 10 10 11 11 11 11 11 11 11 11 11 11
5 5 5 5 5 4 4 4 5 5 6 7 7 8 9 9 9 9 8 9 8 6 8 9 9 7 8 8 9 10 10 10 10 11 11 12 12 12 11 11 11 11 11 11
5 5 5 5 5 5 4 5 5 6 6 7 8 8 9 9 9 10 10 8 8 7 8 9 7 7 8 9 9 10 10 11 11 11 11 12 12 12 11 11 11 11 12 12
5 5 5 4 4 5 6 5 5 6 6 6 7 6 8 9 9 8 7 7 6 7 8 9 8 7 8 9 10 10 11 11 11 11 11 11 11 11 11 11 11 11 11 11
4 4 4 5 5 6 5 5 6 6 6 7 7 6 7 7 9 9 7 8 7 8 9 8 7 8 10 10 10 10 10 11 11 12 11 11 12 11 11 11 11 11 11 11
4 5 5 4 5 5 5 5 6 6 6 8 6 6 7 7 8 8 8 7 9 8 10 10 9 9 10 10 10 10 10 11 11 11 11 11 12 12 12 11 11 11 11 11
4 2 5 5 4 5 5 5 6 6 5 6 6 6 7 7 8 8 7 9 9 10 10 10 9 9 10 10 10 10 11 11 11 11 11 12 12 12 12 12 12 11 11 11

GFSNGP_con_lsi_051.txt.gz
Lid_Strength_Index
14 13 14 14 14 14 16 16 18 16 15 13 13 13 12 11 9 10 9 9 9 10 10 11 11 11 11 10 10 10 10 10 9 9 8 8 8 8 7 7 7 7 6 6
16 14 14 15 14 14 14 14 14 14 14 12 11 11 10 10 10 10 10 9 9 9 10 11 11 11 11 10 10 10 10 9 8 8 8 8 8 8 7 7 6 6 6 6
20 15 15 17 14 13 13 13 13 15 13 10 11 10 10 10 10 10 10 10 10 10 11 10 10 10 11 11 10 10 9 8 9 8 8 8 7 7 8 7 7 7 7 6
21 17 21 14 11 11 11 11 11 11 10 10 10 10 10 10 11 11 10 10 10 11 10 10 10 10 10 10 9 9 9 9 9 9 9 8 8 8 7 7 7 7 7 7
20 21 15 12 12 12 13 13 10 11 10 9 9 11 11 9 9 10 10 10 10 10 10 10 10 10 10 9 9 10 10 9 9 8 8 8 8 8 7 7 7 8 7 7
17 21 21 13 11 10 11 17 10 9 10 10 10 14 13 9 8 9 9 9 10 10 10 11 10 9 9 10 10 10 9 9 8 7 8 8 7 8 7 7 8 8 7 7
19 20 16 10 10 10 17 15 9 9 10 10 12 11 10 8 8 8 9 9 9 10 11 10 9 9 10 10 10 9 9 8 7 7 8 7 7 7 8 8 8 8 7 7
17 19 18 9 11 14 11 10 10 10 10 10 10 9 8 8 8 9 9 9 9 10 10 9 9 10 10 11 9 9 8 7 7 8 7 7 8 8 8 8 8 8 8 8
14 15 10 10 11 10 9 10 10 10 9 9 9 9 8 8 9 9 9 9 9 9 10 9 9 10 11 10 9 9 8 8 8 7 7 8 8 8 9 8 9 8 8 8
14 12 11 11 10 9 10 10 9 9 9 8 9 8 8 8 9 9 9 9 9 9 10 10 10 10 10 9 9 8 8 8 8 8 8 8 8 8 9 9 9 7 6 6
14 12 11 11 10 10 9 8 8 8 8 8 8 8 8 8 9 9 9 9 9 10 10 10 10 10 10 9 8 8 7 8 8 8 8 9 9 9 8 7 6 6 6 6
15 12 12 12 9 9 9 9 8 8 8 8 8 8 8 8 8 8 9 9 9 10 10 10 10 10 9 8 8 8 8 8 8 8 9 9 9 9 6 4 4 5 4 5
11 10 10 10 9 8 9 8 8 8 8 8 7 7 8 8 8 7 9 9 9 10 10 10 10 10 9 8 8 7 9 8 8 8 9 9 9 9 8 6 5 6 5 5
9 9 11 10 10 8 8 7 7 7 7 7 8 7 7 8 8 9 9 9 9 9 10 10 10 10 9 8 7 8 8 7 8 8 8 9 9 8 7 8 9 9 7 7
9 9 9 9 8 8 7 8 8 8 8 8 7 7 7 8 9 9 9 8 9 9 10 10 10 10 8 8 7 8 8 9 8 8 8 8 8 8 8 8 9 9 9 8
9 9 9 9 9 8 8 8 9 8 8 7 7 7 7 8 9 9 9 9 10 11 10 10 10 9 8 7 8 8 9 8 7 8 9 9 9 8 9 9 9 10 10 9
11 11 10 9 9 8 8 7 7 7 7 7 7 7 7 8 9 9 9 9 9 10 10 10 10 9 8 7 8 9 9 9 7 9 9 9 9 9 9 10 10 11 10 9
9 9 8 8 8 7 7 6 6 6 7 6 6 6 7 9 10 10 9 9 9 10 9 9 9 8 8 8 7 9 9 9 9 9 9 9 9 10 10 10 11 11 10 9
7 7 7 7 7 7 6 6 6 6 5 6 6 7 7 8 9 9 9 9 10 10 10 9 7 8 9 8 7 9 9 10 10 10 9 9 10 10 10 10 11 11 11 11
7 7 6 6 6 6 5 5 5 5 5 6 6 7 8 8 9 9 9 10 9 9 9 8 9 9 9 8 7 10 10 10 10 10 10 10 11 11 11 10 10 11 11 11
8 7 6 6 6 5 5 5 5 6 6 5 6 8 8 8 8 8 10 11 9 8 8 7 9 9 8 8 9 10 10 10 11 11 11 11 11 11 11 11 11 11 11 11
7 7 6 6 6 6 5 5 5 6 6 6 6 7 8 8 8 9 9 10 9 7 8 9 9 8 7 8 9 10 10 11 11 11 11 11 11 11 11 11 11 11 11 9
7 6 6 6 6 6 5 5 5 6 6 7 7 7 8 8 8 9 11 8 9 8 9 9 7 6 6 9 9 10 11 11 11 11 11 11 11 11 11 11 11 11 9 9
7 6 6 5 6 6 6 6 6 5 6 6 6 7 8 9 9 8 8 6 6 8 9 9 8 7 7 10 10 10 11 11 11 11 11 10 11 11 11 11 11 10 9 10
6 6 6 6 7 7 6 6 6 6 6 7 7 7 7 7 8 9 9 9 7 8 10 8 7 7 9 10 10 10 10 11 11 11 11 11 12 11 11 11 11 9 9 9
6 6 6 6 6 6 6 6 7 7 7 9 7 6 6 6 7 7 9 8 9 8 10 10 9 9 9 10 11 10 10 10 11 11 11 11 12 12 11 12 12 10 9 9
6 4 6 6 6 5 6 6 7 7 6 8 8 6 5 7 7 7 7 9 10 10 10 10 10 9 9 10 11 11 11 11 11 11 11 11 12 12 12 12 12 11 10 9

GFSNGP_con_lsi_054.txt.gz
Lid_Strength_Index
15 14 15 15 15 15 16 17 18 17 16 14 14 14 12 12 10 10 10 9 10 11 11 12 12 12 11 11 11 11 10 10 10 10 9 9 8 8 8 7 7 7 7 6
17 14 15 16 15 14 15 15 16 15 15 12 11 11 11 11 10 10 11 10 10 10 11 11 12 12 12 11 11 10 11 10 9 9 9 8 8 8 8 7 7 7 7 7
20 16 16 19 15 14 14 14 14 16 14 11 11 10 11 11 11 11 11 10 10 10 11 12 11 11 11 11 11 11 11 10 9 9 8 8 8 8 8 8 7 7 7 7
21 18 22 16 13 13 13 12 11 11 11 10 10 10 10 10 11 10 10 10 10 11 11 11 11 11 11 10 11 11 10 10 9 9 9 8 8 8 8 7 7 7 7 7
21 22 17 14 13 13 14 13 10 11 10 10 9 11 12 9 9 10 10 10 11 11 11 11 11 10 10 11 11 10 9 10 9 9 9 8 8 8 7 7 7 8 7 8
18 22 22 15 12 11 11 17 10 10 11 11 11 14 13 10 9 9 9 10 10 10 10 11 10 10 11 11 10 10 9 9 9 9 8 8 8 8 7 7 8 8 8 7
19 21 17 12 11 11 18 16 11 11 11 11 13 12 10 9 9 8 9 9 10 11 11 11 10 11 11 10 11 9 9 9 9 8 7 7 8 8 8 7 8 8 8 7
19 20 19 10 12 14 13 12 11 11 11 11 10 9 9 8 8 8 9 10 10 11 11 10 10 11 11 11 10 10 9 9 8 8 7 7 8 7 8 8 8 8 8 8
15 15 11 11 11 10 10 11 11 11 10 9 9 9 9 9 9 9 10 10 10 10 10 10 10 10 11 10 10 10 9 9 8 7 8 7 8 9 9 8 9 9 8 7
14 12 12 11 10 10 10 10 9 9 9 9 10 9 9 9 9 9 10 10 9 10 10 10 10 10 11 10 9 9 9 9 8 9 7 8 8 8 8 8 8 7 7 8
14 13 12 11 11 10 10 9 9 9 9 9 9 9 9 9 9 9 10 9 9 10 10 10 10 10 10 9 9 10 9 8 9 8 8 8 8 8 8 7 6 7 8 7
14 12 12 12 11 9 9 9 9 9 9 8 9 9 8 9 9 9 9 9 9 9 10 10 10 10 10 9 9 9 8 8 8 8 8 8 8 8 6 5 5 6 5 5
12 11 11 10 9 9 10 9 8 8 9 9 8 8 8 8 8 7 9 9 9 9 9 10 10 11 10 9 9 9 8 8 8 8 8 8 9 9 9 7 6 6 6 5
10 10 12 11 10 9 9 8 8 8 8 8 8 7 8 8 8 8 8 9 9 9 10 10 10 10 9 9 9 8 8 8 9 8 8 9 9 9 8 9 9 9 7 7
10 10 10 10 9 9 8 8 9 9 9 8 7 8 7 8 8 8 8 8 8 9 10 10 10 10 9 8 8 8 9 9 8 8 8 8 9 9 9 9 9 9 8 8
10 10 10 10 10 9 9 8 9 9 8 8 8 7 7 7 7 8 8 8 9 10 10 10 10 9 9 8 8 7 10 8 8 9 9 9 9 9 9 10 10 9 9 9
11 12 11 11 10 10 9 8 8 8 7 7 7 7 7 7 8 8 8 8 9 9 10 10 10 9 8 8 8 9 10 9 8 9 10 9 9 10 10 10 10 10 10 9
9 9 9 9 9 9 8 8 7 7 7 6 6 6 7 8 8 8 8 8 9 10 9 9 9 8 9 9 7 10 10 9 10 10 10 10 10 10 10 10 10 10 10 9
8 9 9 9 9 9 8 7 6 6 5 6 6 7 7 7 7 8 8 9 9 11 10 9 7 9 9 8 6 10 10 10 10 10 10 9 10 10 10 10 10 10 10 10
9 9 8 8 7 7 7 7 6 6 5 6 6 7 8 8 8 8 8 9 9 9 9 9 9 10 9 8 7 10 10 10 11 11 10 11 11 11 11 10 11 10 10 9
9 9 9 8 8 7 6 6 6 6 5 6 7 7 8 8 8 8 9 9 9 9 8 8 9 10 9 7 9 10 10 10 11 11 11 11 11 11 11 11 11 10 9 9
9 9 8 8 8 7 6 6 6 6 6 6 6 7 8 8 8 8 8 9 9 6 8 10 10 8 7 7 9 10 10 10 11 11 11 11 11 11 11 11 11 9 10 10
9 8 7 7 7 7 6 6 6 6 6 6 7 7 8 8 9 10 10 8 8 8 9 10 8 6 6 9 9 10 10 10 11 11 11 11 11 11 11 12 10 9 9 10
8 8 7 6 7 7 7 6 6 6 6 6 6 7 8 9 10 8 8 7 5 7 9 9 8 6 7 10 10 10 10 11 11 11 11 10 11 11 11 11 10 9 9 10
7 7 7 7 7 7 7 7 7 6 6 7 7 7 7 7 7 8 8 8 6 7 10 8 7 7 10 10 10 10 10 10 11 11 11 11 11 11 11 11 10 9 10 11
7 7 7 6 7 7 7 7 9 7 7 8 8 8 7 6 6 6 8 8 9 8 10 10 10 9 10 10 10 10 11 11 11 11 11 11 11 11 12 10 10 9 10 11
7 5 7 7 6 6 6 6 7 7 7 8 8 7 6 6 6 7 7 9 9 10 10 10 10 9 10 9 11 11 11 12 11 11 11 12 11 11 12 11 10 9 10 12

GFSNGP_con_lsi_057.txt.gz
Lid_Strength_Index
16 15 16 16 16 16 17 18 19 17 17 16 15 14 13 12 11 11 10 10 10 11 11 12 12 12 12 12 12 11 11 11 11 10 10 10 10 9 8 8 8 8 7 7
18 15 15 16 15 15 16 16 16 16 16 14 13 13 11 12 11 11 11 10 10 10 10 11 12 12 12 12 11 11 11 11 10 10 10 9 8 8 8 8 7 7 7 7
19 17 17 18 16 15 15 14 15 16 14 12 12 11 11 11 11 11 10 10 10 10 11 12 12 11 12 11 11 11 11 11 10 10 9 9 8 9 8 8 7 7 7 7
21 19 22 17 14 13 13 12 12 12 12 11 11 10 10 10 11 11 10 10 10 11 11 11 11 11 11 11 11 11 11 11 10 9 9 9 9 9 7 7 8 7 7 7
21 22 18 15 13 13 13 13 11 12 12 11 11 12 12 10 10 10 10 10 10 11 11 11 11 11 11 11 11 11 11 10 9 9 9 9 9 8 7 8 7 8 7 7
19 23 22 16 12 11 12 17 11 11 12 12 12 16 14 10 9 9 8 9 10 10 10 11 11 11 11 11 11 11 10 9 9 9 9 9 8 8 8 7 8 7 7 7
19 21 17 13 11 11 17 17 12 12 12 12 13 12 10 9 9 8 8 9 10 11 11 11 11 11 11 12 12 10 9 9 9 9 9 8 7 8 7 8 8 8 8 7
19 20 19 11 12 14 13 12 11 12 12 11 11 10 9 9 9 9 9 10 10 11 11 11 11 11 11 12 10 10 9 9 9 9 8 7 8 7 7 8 8 8 8 7
15 16 12 12 12 11 10 11 12 12 11 10 10 10 10 10 9 9 9 10 10 11 11 11 10 10 11 10 10 9 10 10 9 8 7 7 8 8 8 8 8 8 7 8
14 13 12 11 11 11 11 11 10 10 10 10 11 10 10 10 9 10 10 10 10 10 11 11 10 10 10 10 10 10 10 10 8 8 7 8 7 7 8 8 8 7 8 8
15 14 13 12 12 11 10 10 10 10 10 10 10 10 10 10 9 9 10 10 10 10 10 10 10 10 10 10 10 10 10 9 8 7 8 8 7 7 7 7 6 8 8 7
15 12 13 13 11 10 10 11 10 10 10 9 10 9 9 9 9 9 10 10 10 10 9 9 10 10 10 10 10 10 10 8 8 8 9 8 8 8 6 5 6 6 6 6
12 12 12 11 10 10 10 10 10 10 10 10 9 9 9 9 9 8 8 9 9 9 9 9 10 10 10 9 9 9 9 8 8 9 8 8 9 9 9 7 6 6 6 6
12 11 13 11 11 10 10 9 8 9 9 9 9 8 8 8 8 8 8 8 8 8 8 9 10 10 9 9 9 9 8 7 9 9 9 9 9 9 9 9 10 9 7 7
12 12 12 11 10 10 9 9 9 9 9 9 8 8 8 8 8 7 7 7 8 8 8 9 10 10 9 9 9 8 8 9 9 8 9 8 9 9 9 9 9 10 9 8
12 12 11 11 11 10 10 10 10 9 9 8 8 8 7 7 7 7 8 7 9 9 9 10 10 10 9 9 9 8 8 8 8 9 9 9 9 9 10 10 10 10 10 10
12 13 12 12 11 11 10 9 9 8 8 8 7 7 7 7 8 8 8 7 7 8 9 10 10 9 9 9 9 7 9 9 8 10 10 10 9 10 10 10 10 10 10 9
10 10 10 11 11 10 10 9 9 8 8 7 6 7 7 8 8 8 8 8 8 8 9 9 9 8 9 9 9 8 9 10 9 10 10 10 10 10 10 10 10 11 10 10
9 9 9 10 10 10 10 9 8 7 7 6 6 7 7 7 8 8 8 8 8 9 9 9 7 8 10 9 6 9 9 10 10 10 10 9 10 10 10 10 11 9 10 11
10 9 9 9 9 9 9 8 8 8 7 6 7 7 7 7 8 8 8 9 8 9 9 9 9 10 10 9 6 9 9 10 10 11 11 11 11 11 10 10 10 9 9 11
11 10 10 10 9 9 8 8 8 8 7 6 7 7 8 7 7 8 9 10 8 8 8 7 9 10 9 7 8 9 10 10 10 11 11 11 11 11 11 11 9 10 9 10
10 10 9 9 9 9 8 7 7 7 7 6 7 7 7 8 8 8 8 9 8 6 8 9 10 8 7 7 9 9 10 10 10 11 11 11 11 11 11 11 10 10 9 10
10 10 9 9 8 8 7 7 7 7 7 7 7 7 8 8 8 10 10 8 8 7 9 9 8 6 6 10 9 9 10 10 11 11 11 11 11 11 12 10 10 10 9 11
10 9 8 7 8 8 8 7 7 7 7 6 6 7 7 9 9 8 8 6 5 6 9 9 8 6 7 10 10 10 10 10 11 11 11 11 11 11 11 10 10 10 9 10
9 9 8 8 8 8 8 8 7 7 7 7 7 7 7 8 9 8 8 8 6 7 9 7 7 7 10 10 10 11 11 11 10 11 11 11 11 11 12 10 10 11 10 11
9 8 8 8 8 8 9 8 10 8 8 8 7 8 8 7 7 6 7 7 9 7 9 10 10 10 10 10 10 11 11 11 11 11 11 11 11 11 11 11 11 11 11 12
8 6 8 8 7 7 7 6 6 7 7 8 8 7 7 6 6 6 7 8 9 9 10 10 10 9 10 10 10 11 12 12 12 12 12 12 11 11 11 11 12 12 12 12

GFSNGP_con_lsi_063.txt.gz
Lid_Strength_Index
15 15 14 14 15 16 16 16 16 15 16 14 13 12 11 10 9 9 8 8 8 8 8 8 8 9 9 9 9 9 9 9 8 8 8 8 8 8 7 7 7 6 6 6
16 15 15 15 14 15 15 15 16 15 15 12 11 10 10 9 9 9 9 9 9 8 8 8 8 9 9 9 9 9 9 9 9 9 9 8 8 8 7 7 6 6 6 6
16 16 16 16 15 15 14 14 13 14 12 11 11 10 10 9 10 10 10 9 9 8 8 8 9 9 9 9 9 9 9 9 9 9 9 8 8 7 7 6 6 6 6 6
17 17 19 14 13 13 13 12 12 12 11 10 10 9 9 9 9 9 9 9 8 8 8 9 9 9 9 9 9 9 10 9 9 9 9 8 7 7 6 6 6 6 6 6
17 18 17 15 13 13 13 13 11 11 10 10 10 10 10 9 9 9 8 8 8 8 9 9 9 9 9 9 9 9 9 9 8 8 8 7 7 7 6 6 6 6 6 6
18 20 20 15 13 11 11 14 11 11 11 11 11 13 11 9 8 8 8 8 8 8 9 9 9 9 9 9 9 9 9 9 8 7 7 7 7 7 7 7 6 6 7 6
17 18 16 13 11 10 15 13 10 10 11 11 11 10 9 9 9 8 8 8 8 9 9 9 9 9 9 9 9 8 8 7 7 7 7 7 6 6 6 6 7 7 7 6
18 18 18 11 12 13 11 11 10 10 10 10 10 9 9 9 9 9 9 8 9 9 9 9 9 9 9 9 8 7 7 7 7 7 7 7 7 6 6 7 8 8 7 7
15 15 12 11 11 10 10 11 10 10 10 10 10 10 10 10 9 9 9 8 8 9 8 8 8 8 8 7 7 7 7 8 8 7 7 6 7 7 8 8 8 8 8 8
14 13 13 11 11 10 10 10 10 9 10 10 10 10 10 9 9 9 8 8 8 8 8 8 7 7 7 7 7 7 8 8 8 7 7 7 7 8 8 8 8 8 8 8
14 13 12 12 11 11 10 10 10 9 9 9 9 9 9 9 9 8 8 8 8 8 8 7 7 6 6 7 7 8 8 8 8 7 8 8 8 8 8 7 7 7 8 8
14 13 12 12 11 11 11 10 10 10 9 9 9 9 9 8 8 8 8 7 7 6 7 6 6 6 7 7 7 8 9 8 8 7 7 8 8 8 6 6 5 5 5 6
12 12 12 12 11 10 11 10 9 9 9 9 8 9 8 8 8 6 7 6 6 6 6 6 7 7 7 7 7 8 9 8 7 8 9 9 9 9 10 8 6 6 6 6
12 12 12 12 11 10 9 9 8 8 8 8 8 8 8 8 7 7 7 6 6 6 6 6 6 6 7 7 7 8 8 7 8 8 8 9 9 9 9 9 10 9 7 7
12 12 12 11 11 10 9 9 9 9 9 9 8 8 8 8 7 6 5 6 6 6 6 6 6 6 7 7 8 8 8 8 7 8 8 8 9 9 9 9 10 9 9 9
12 12 12 11 11 10 10 10 10 10 9 9 8 8 7 7 6 6 6 6 7 6 6 7 7 6 7 7 8 8 7 7 7 8 9 9 9 9 9 10 10 9 11 10
13 13 12 12 11 11 11 10 10 10 10 9 8 8 7 7 6 6 5 5 6 6 6 7 7 7 7 7 8 8 7 8 8 9 9 10 9 10 10 10 9 9 10 10
12 11 11 11 11 11 11 10 10 9 9 9 8 7 7 7 7 6 6 6 6 6 6 6 7 7 7 8 8 7 8 8 9 9 9 10 10 10 10 10 10 9 10 10
11 11 11 11 10 10 10 10 9 9 9 8 8 7 7 6 6 6 6 6 7 7 6 7 6 6 8 8 5 7 8 9 9 9 10 9 10 10 10 10 10 10 11 10
11 10 10 10 10 10 10 10 9 9 8 7 7 7 7 6 6 6 6 7 6 6 6 7 7 7 8 8 6 7 8 9 10 10 10 10 11 11 11 10 10 11 11 10
11 11 11 11 10 10 10 9 9 9 7 7 7 7 7 6 6 6 7 7 6 6 6 6 7 7 7 6 8 8 8 9 10 10 10 11 11 11 11 10 11 11 11 11
12 12 11 11 10 10 9 9 8 8 7 7 7 7 7 6 6 6 7 7 6 5 6 6 7 7 5 7 8 8 8 9 10 10 10 10 11 11 12 11 12 12 11 12
12 11 11 11 10 9 9 8 7 7 7 7 7 7 7 6 6 7 7 6 7 6 6 6 6 5 5 8 8 8 9 10 10 10 10 11 11 10 11 12 12 12 12 12
12 11 11 10 10 10 9 7 7 7 7 7 6 6 7 7 6 6 7 6 5 5 6 6 6 5 7 8 8 9 9 10 10 10 10 10 11 10 11 12 12 12 12 12
12 12 11 11 10 10 9 8 7 7 7 7 6 6 6 6 7 6 6 7 5 5 6 6 6 6 8 8 8 9 9 10 10 11 11 11 11 10 11 12 12 12 13 12
12 11 10 10 10 9 8 8 8 8 8 7 6 5 5 5 6 6 6 6 6 6 7 7 7 8 8 8 9 9 10 10 11 11 11 12 11 11 12 11 12 12 12 12
11 9 10 9 8 8 7 7 7 7 7 7 7 5 4 4 5 5 6 7 7 7 7 8 8 8 8 8 9 9 10 11 11 11 12 12 12 12 12 12 12 12 12 12

GFSNGP_con_lsi_066.txt.gz
Lid_Strength_Index
13 13 12 12 12 12 13 11 13 12 12 11 9 9 8 7 7 7 6 6 6 6 6 5 5 5 5 6 6 6 6 6 6 6 6 6 7 7 6 6 6 5 5 4
13 13 13 13 12 12 12 12 12 12 11 8 8 7 7 7 7 7 7 6 6 6 6 6 6 5 6 6 6 6 6 6 6 7 7 7 7 7 6 5 5 4 4 4
12 13 13 13 11 11 11 11 10 11 9 8 9 8 8 7 7 7 7 7 7 7 6 6 6 6 6 6 6 6 6 7 7 7 7 7 6 6 6 5 4 5 5 5
12 13 16 12 11 10 10 10 9 10 9 8 8 7 7 7 7 7 7 7 7 6 6 5 6 6 6 6 6 6 7 6 6 6 7 6 6 5 5 4 5 5 5 5
13 14 12 12 12 11 11 10 8 9 9 8 8 8 7 7 7 7 7 7 6 6 6 6 6 6 6 6 6 6 6 7 6 6 6 6 6 5 4 5 5 5 5 5
13 16 15 12 10 9 9 12 8 8 8 8 8 10 8 7 7 7 7 6 6 6 6 7 6 6 6 6 6 6 6 6 6 5 6 6 5 5 5 6 5 5 5 5
13 13 11 10 9 9 13 11 8 8 7 8 9 8 8 7 7 7 7 6 6 6 6 6 5 5 6 6 6 5 5 5 5 5 5 5 5 6 6 6 6 6 7 6
13 13 14 9 10 11 8 8 8 8 8 8 8 8 8 8 7 7 7 6 5 6 5 5 5 5 6 6 4 4 5 5 5 5 6 5 6 6 6 6 7 7 7 7
10 10 10 8 9 8 8 8 8 8 8 8 9 8 8 8 7 7 6 6 5 5 5 4 4 4 5 4 4 4 5 5 6 6 5 5 7 6 6 7 8 8 8 8
11 9 10 9 8 8 8 8 8 8 8 8 8 8 8 7 7 6 6 5 5 5 5 4 3 3 4 3 4 5 5 6 6 6 6 6 6 6 7 8 8 8 8 8
10 9 10 9 8 8 8 8 8 8 8 8 8 8 7 7 6 6 5 5 4 5 4 4 3 3 3 3 4 5 6 6 6 6 7 7 7 7 7 7 7 7 7 7
11 9 8 9 8 8 8 9 8 8 8 7 7 7 7 6 5 5 5 4 4 3 3 3 3 3 3 3 4 5 6 7 6 7 7 7 8 7 6 6 5 5 5 6
9 9 9 9 8 7 8 8 8 7 7 7 6 6 6 6 5 5 4 4 3 3 3 3 3 3 3 4 5 5 6 6 7 7 7 8 8 9 9 7 6 6 6 6
8 9 10 9 9 8 8 8 7 7 6 6 6 6 6 6 5 5 4 3 3 3 3 3 3 3 3 4 5 5 6 6 7 7 7 8 9 9 9 9 9 8 7 7
8 9 8 7 7 8 7 7 7 7 7 7 6 6 6 6 5 4 3 3 3 3 3 3 3 4 4 4 5 6 6 7 7 7 7 8 9 9 9 9 9 7 8 8
9 9 9 8 8 8 7 7 8 7 7 6 6 6 5 5 4 3 3 3 3 3 3 3 3 3 4 5 5 6 6 6 7 7 8 8 9 9 9 9 9 9 9 9
10 11 10 9 8 8 8 7 7 7 7 7 6 6 5 4 4 3 3 2 2 3 3 3 3 4 5 4 6 5 6 7 7 8 8 9 9 10 10 10 10 9 10 9
9 8 8 7 8 8 8 8 7 7 7 6 6 5 4 4 4 3 3 3 3 3 3 3 3 4 4 5 5 6 6 7 8 9 9 9 10 9 10 10 10 10 10 10
9 9 8 8 8 8 7 7 7 6 6 6 5 4 4 4 3 3 3 3 3 3 3 4 5 5 5 5 5 5 6 8 9 9 9 9 10 10 10 10 10 10 10 11
9 8 8 8 8 7 8 7 7 6 5 5 4 4 4 4 3 3 3 3 3 3 3 4 4 4 5 5 5 6 7 8 9 9 9 10 10 10 10 11 11 11 11 11
9 8 8 9 9 8 7 6 6 6 5 4 4 5 4 3 3 3 3 3 2 3 4 5 4 4 5 5 6 6 7 8 9 9 10 10 11 10 11 11 11 11 11 11
9 9 9 8 8 7 6 6 5 5 5 4 4 4 4 3 3 3 2 3 3 5 4 4 4 5 5 6 6 7 7 8 9 10 10 10 11 10 11 11 12 12 11 11
9 9 9 9 8 7 6 6 5 5 4 4 5 5 5 4 3 4 4 2 3 5 5 4 5 4 6 6 6 7 7 8 9 10 10 10 10 10 11 11 12 12 12 11
9 9 9 9 7 7 7 5 5 4 4 5 4 4 5 5 4 3 3 3 5 4 4 4 5 5 7 6 7 7 7 9 10 10 10 10 10 10 11 11 12 12 12 11
9 9 9 8 7 6 6 5 5 4 5 4 4 4 4 4 5 5 4 4 5 4 4 5 5 6 6 6 7 7 8 9 10 10 10 10 11 11 11 12 12 12 12 11
9 9 8 8 6 6 5 5 4 4 5 5 5 4 4 4 4 4 5 5 4 4 5 5 5 6 6 7 7 7 8 9 10 11 11 11 11 11 12 12 12 12 11 11
9 10 8 7 6 6 5 5 5 5 5 5 5 5 4 4 4 4 5 5 5 5 5 5 6 6 7 7 8 8 9 10 11 11 11 10 10 11 11 12 12 12 11 11

GFSNGP_con_lsi_069.txt.gz
Lid_Strength_Index
11 11 11 11 11 11 12 10 12 10 11 9 8 8 7 6 6 6 6 6 6 6 6 6 5 5 5 4 4 5 5 5 5 5 5 6 6 6 6 6 6 5 5 4
12 11 11 12 11 11 11 11 10 10 10 7 6 6 7 7 7 7 6 6 6 6 6 6 6 5 5 5 5 5 5 5 5 5 6 6 6 6 6 6 5 5 5 4
12 11 11 12 10 10 10 9 10 11 9 7 8 8 7 7 6 7 7 7 7 7 6 6 6 6 6 5 5 5 5 5 6 5 6 6 6 6 5 5 5 4 4 4
12 11 15 11 9 9 9 9 8 8 8 8 7 7 6 6 6 7 7 7 7 6 6 6 5 5 5 5 5 5 5 5 5 6 6 6 6 5 5 5 4 5 5 5
13 12 11 12 11 10 10 10 8 8 8 7 7 7 7 6 7 7 7 7 6 6 5 5 5 5 5 5 5 5 5 5 5 5 5 5 5 5 5 5 5 6 5 5
12 16 15 11 9 8 8 12 7 7 7 8 7 10 9 7 7 7 7 6 6 5 5 5 5 5 5 5 5 5 5 5 4 4 5 5 4 5 5 5 6 6 6 5
12 13 11 9 8 7 13 11 7 7 7 7 8 8 7 8 8 7 6 6 5 5 5 5 4 4 5 5 5 4 3 4 4 4 4 5 5 5 5 6 6 6 6 6
11 12 14 8 9 10 8 7 7 7 7 7 7 8 8 8 7 7 6 6 5 5 5 4 4 4 5 4 3 3 3 4 4 4 5 5 5 5 6 6 6 7 7 7
9 9 8 7 7 7 7 7 7 7 7 7 8 9 8 8 7 7 6 6 5 5 5 4 3 3 4 3 3 3 4 4 4 5 5 5 5 6 6 6 7 8 8 8
10 8 8 8 7 7 7 7 6 6 7 7 9 8 8 7 7 6 6 6 5 5 5 4 3 2 2 2 2 3 4 4 5 5 6 5 6 6 6 7 8 8 8 8
9 8 8 7 7 6 7 7 7 7 7 8 8 8 7 7 6 6 5 5 4 4 4 3 2 2 2 2 2 4 4 4 5 6 6 6 6 7 7 7 7 7 7 7
11 8 7 8 7 6 7 7 7 8 8 8 7 7 7 6 6 5 5 4 4 3 3 2 2 2 2 2 3 4 5 5 6 6 7 7 7 7 6 6 6 5 5 6
8 7 7 7 7 6 7 7 7 8 8 8 7 6 6 6 5 4 4 4 3 3 2 2 2 2 2 2 3 4 5 5 6 6 7 7 8 9 9 8 6 6 5 5
7 7 8 8 8 7 7 7 7 7 7 7 6 5 5 5 5 5 4 3 2 2 2 2 2 2 2 2 3 4 5 5 6 7 7 7 8 8 9 9 9 9 7 6
7 7 7 7 7 7 7 7 8 8 7 7 6 6 5 5 5 4 3 2 2 2 2 2 2 2 2 3 4 4 5 5 6 6 7 7 8 8 9 9 9 9 9 8
8 8 8 8 8 8 8 8 8 8 7 6 6 5 5 5 4 3 2 2 2 3 2 2 2 2 3 3 4 5 5 6 6 7 8 8 8 9 10 10 10 10 10 10
9 10 9 9 9 8 8 8 7 7 7 6 5 5 4 4 3 3 2 2 2 2 2 2 2 2 3 3 4 5 6 6 6 8 8 8 9 10 10 10 11 10 10 9
7 8 8 8 8 8 8 7 7 7 7 6 5 4 4 4 3 3 2 2 2 2 2 2 2 3 3 3 5 5 6 6 7 8 8 9 9 9 10 11 11 11 11 10
8 8 8 8 7 7 7 7 7 7 6 5 5 4 4 3 3 2 2 2 2 3 2 2 5 4 4 4 5 5 6 7 8 9 8 9 10 9 10 11 11 11 10 10
9 8 8 8 7 7 7 7 7 6 5 4 4 4 4 3 3 3 2 2 2 2 2 3 4 4 4 4 5 5 6 7 8 9 9 10 10 11 10 11 11 11 11 10
9 8 8 8 8 8 8 7 7 6 5 4 4 4 4 3 2 3 3 3 2 2 3 4 4 4 4 4 5 6 6 7 8 9 9 10 10 11 11 11 11 11 11 11
8 9 9 8 8 8 7 6 6 6 5 4 4 4 4 4 4 4 3 3 2 4 4 4 4 4 4 5 5 6 6 7 8 9 9 10 11 11 12 11 12 11 11 11
9 9 8 8 8 8 7 6 6 5 5 5 5 5 5 5 5 6 5 3 3 4 4 4 5 4 5 5 6 6 7 7 9 9 10 10 10 11 11 12 12 11 11 11
9 8 8 8 8 8 8 6 6 5 4 5 4 4 4 5 5 4 3 3 3 4 4 4 4 5 6 5 6 7 7 8 9 9 10 10 10 11 11 12 12 12 11 11
9 9 9 8 8 7 7 6 5 5 5 4 4 4 4 3 4 4 4 4 4 4 4 5 5 6 6 6 6 7 7 8 9 10 10 11 11 11 11 12 12 12 11 11
9 9 8 8 8 7 6 6 5 5 5 6 5 5 4 4 3 3 4 5 4 5 5 5 5 5 6 6 7 7 8 9 10 10 10 11 11 11 11 12 12 11 11 11
9 9 8 8 7 7 6 6 6 6 6 6 6 5 5 5 4 4 5 5 5 5 5 5 5 6 6 7 7 8 9 10 10 11 10 10 11 11 11 11 11 11 11 11

GFSNGP_con_lsi_072.txt.gz
Lid_Strength_Index
11 11 11 12 11 12 13 13 15 13 13 11 11 10 9 8 8 8 8 7 8 9 9 9 9 8 8 7 7 7 7 8 7 7 7 8 8 7 7 7 7 7 7 6
13 11 11 12 11 12 12 12 12 12 13 10 9 9 9 9 8 9 9 8 8 9 9 9 9 8 8 8 7 7 8 7 7 7 7 7 7 7 8 7 7 6 6 6
14 11 11 14 11 11 11 11 11 14 11 9 10 9 10 10 9 9 9 9 9 9 9 9 8 8 8 8 7 7 7 7 7 7 7 7 7 7 7 7 7 6 7 6
16 13 18 13 10 10 10 10 10 9 9 9 9 9 9 8 8 9 9 9 9 9 9 8 8 7 7 7 7 7 7 7 7 7 7 7 7 7 7 7 6 7 7 6
17 16 13 13 12 12 13 12 9 10 9 9 8 9 10 8 9 9 10 10 10 9 8 8 8 7 7 7 7 7 7 7 7 7 6 6 6 7 7 7 7 6 6 6
14 19 19 13 11 9 9 15 9 9 9 9 9 13 12 9 9 9 9 9 8 8 8 8 7 7 8 8 8 8 7 6 6 6 6 6 6 7 7 7 7 6 6 6
14 17 13 11 10 9 16 13 9 9 9 9 11 11 10 9 9 9 9 9 8 8 8 8 7 7 8 8 8 6 5 5 5 5 6 6 7 7 7 7 6 7 6 6
14 16 17 9 10 13 10 9 8 9 9 9 9 9 9 9 9 9 9 8 8 8 8 7 7 7 7 7 5 5 5 5 5 6 5 5 8 8 7 7 7 7 8 7
12 12 9 9 9 8 8 8 9 9 9 8 9 10 9 10 10 9 9 8 8 8 8 7 7 6 7 6 5 5 5 6 6 6 6 7 8 8 8 7 8 8 8 8
12 10 10 9 9 8 8 9 8 8 8 9 10 10 10 10 9 9 8 8 7 7 7 7 6 5 5 4 4 5 6 6 6 7 7 8 7 7 8 8 8 8 8 8
12 11 10 9 9 8 8 8 8 8 9 9 9 10 10 10 9 8 8 7 7 7 7 6 5 4 4 4 4 5 6 6 6 7 8 9 8 8 7 7 7 8 8 7
13 10 10 10 8 7 8 9 9 9 10 9 9 10 9 9 8 8 7 7 6 6 5 5 4 4 4 3 4 5 6 6 7 8 9 8 8 8 6 6 6 6 5 6
11 9 9 9 8 8 8 8 9 9 9 10 10 9 9 8 8 6 6 6 6 5 4 4 4 4 3 3 4 5 7 6 7 7 8 8 8 9 9 8 6 6 6 5
8 9 10 9 10 8 8 8 8 9 10 9 9 8 8 8 7 6 6 5 4 4 4 4 4 4 3 4 5 5 6 4 8 8 8 8 9 9 9 10 10 10 7 7
9 9 9 9 9 9 9 9 11 11 10 9 8 8 8 8 7 6 5 4 4 4 4 3 3 4 3 4 5 6 6 7 8 7 8 8 9 9 10 10 10 10 10 9
9 9 10 10 10 10 10 11 11 11 10 9 9 8 8 7 6 5 4 4 4 5 4 4 4 4 4 4 5 6 6 5 6 8 8 9 9 10 10 10 11 11 11 10
10 11 11 11 11 11 11 11 10 10 9 9 9 8 7 6 6 5 4 4 4 4 3 3 4 4 4 4 5 6 7 7 6 8 9 9 9 10 10 11 11 11 11 10
10 10 10 10 11 11 10 10 10 10 9 9 8 7 7 6 6 5 4 4 4 4 3 4 5 5 5 5 6 6 7 7 8 8 9 9 9 10 10 11 11 12 11 10
10 10 10 10 10 10 10 10 9 9 9 8 8 8 6 6 5 5 4 5 5 4 3 4 4 5 6 5 5 6 7 8 8 8 9 9 10 10 11 11 12 12 11 11
11 10 10 10 10 9 10 10 9 9 8 8 7 7 7 5 5 5 5 5 4 4 3 5 5 5 5 4 4 7 8 8 8 9 9 10 11 11 11 11 11 12 12 11
11 11 11 10 10 10 10 9 9 9 8 8 8 7 7 6 6 6 6 6 4 3 4 4 5 6 5 5 6 7 8 8 8 9 10 10 11 11 11 12 12 12 11 11
11 11 11 11 11 10 10 10 9 9 8 8 7 7 8 8 7 6 6 5 3 3 4 5 6 4 5 5 7 8 8 8 8 10 10 11 11 11 12 12 13 12 12 11
12 11 11 11 11 11 10 10 9 9 8 8 8 8 8 8 8 8 7 4 3 4 5 5 4 4 4 7 8 8 8 9 9 10 11 11 11 11 12 12 12 12 12 11
12 12 11 11 11 11 11 10 9 8 8 7 7 6 7 9 8 6 5 4 4 4 4 5 5 5 5 8 8 9 9 9 11 10 11 10 11 11 12 12 12 12 11 11
12 12 12 11 11 11 10 10 9 8 8 7 7 7 7 7 7 6 4 5 4 4 5 5 5 5 8 8 9 9 10 10 11 11 11 11 11 12 12 12 12 12 12 11
12 12 11 10 10 10 10 9 10 9 9 9 8 7 7 7 5 5 5 5 5 5 6 5 7 7 8 9 9 9 10 11 11 11 11 11 11 12 11 12 12 12 12 12
11 10 11 11 10 10 10 10 10 10 9 9 9 8 7 6 5 6 6 6 5 5 6 7 8 7 9 9 9 10 11 11 11 11 11 11 11 11 11 11 12 12 12 12

GFSNGP_con_lsi_075.txt.gz
Lid_Strength_Index
13 13 13 13 12 13 14 15 16 15 14 13 12 12 11 10 10 10 9 9 10 10 11 11 11 10 10 10 9 9 9 9 9 8 9 9 9 8 8 8 8 8 7 6
14 12 12 13 12 13 13 13 14 14 14 12 12 11 11 10 10 10 10 10 10 10 10 10 11 11 10 10 9 9 9 9 8 9 9 9 8 8 8 8 8 7 7 7
16 13 13 15 13 13 13 12 12 15 13 12 11 11 11 11 10 10 11 10 10 10 10 10 10 9 10 9 9 9 9 9 9 9 8 8 8 8 7 8 8 8 8 7
17 14 19 14 12 11 12 11 11 11 10 10 10 10 10 10 11 11 11 11 11 10 10 10 10 9 9 9 9 9 9 9 9 8 8 8 7 7 8 8 8 8 8 8
17 17 14 14 13 13 14 14 11 11 10 10 10 11 12 11 10 11 11 11 10 10 10 10 10 9 9 9 9 9 9 9 8 8 7 7 7 7 7 8 9 8 8 6
16 19 20 14 12 11 12 18 11 10 11 11 11 15 14 11 10 11 10 10 10 10 9 10 9 9 9 9 9 9 8 7 7 7 7 7 7 7 8 8 8 7 7 6
17 20 16 12 12 10 18 17 11 10 10 11 12 12 11 11 11 10 10 10 10 10 10 9 9 8 9 8 8 7 6 6 6 6 6 6 7 9 9 9 8 9 8 7
17 19 19 11 12 15 13 11 10 10 10 11 11 11 11 11 11 10 10 10 10 10 9 9 8 8 8 8 6 6 6 6 6 6 6 5 9 9 9 9 9 9 8 8
15 15 11 11 11 10 9 10 11 10 10 10 11 11 11 11 11 11 10 10 9 9 9 8 8 7 7 6 5 5 6 6 6 6 6 8 9 9 9 9 9 8 9 9
14 13 11 10 10 9 10 10 9 9 10 10 12 11 11 11 11 11 10 10 9 9 8 8 7 6 5 5 5 6 6 7 7 7 7 9 8 8 9 9 8 9 9 8
14 13 12 11 11 10 9 9 9 10 10 11 11 11 11 11 11 10 10 9 8 8 7 7 5 5 5 4 5 6 7 7 7 7 8 9 9 9 8 7 7 8 8 8
15 12 12 12 10 9 10 10 10 11 11 11 11 11 11 11 10 10 9 8 7 7 6 6 5 5 4 4 5 6 7 7 7 8 9 9 9 9 6 6 6 6 6 7
12 11 11 10 9 9 10 10 10 11 11 11 11 11 10 10 9 8 8 8 7 6 6 5 5 5 4 4 5 6 7 7 7 8 9 9 9 9 10 8 7 7 7 7
10 11 12 12 11 10 9 9 9 11 11 11 11 10 10 10 9 9 8 7 6 5 5 5 5 5 4 5 5 6 6 4 8 9 9 9 9 9 9 10 11 10 8 8
11 11 11 10 10 10 10 11 12 12 12 11 10 10 10 10 10 9 7 6 5 5 5 4 4 4 4 4 6 6 6 8 8 8 7 8 9 9 10 10 11 11 11 9
11 11 11 11 12 12 13 13 13 12 12 11 11 10 10 10 9 7 6 5 6 6 5 5 4 4 4 5 6 6 7 5 6 7 9 9 9 10 10 11 11 12 11 11
12 13 13 13 13 13 13 13 12 12 11 11 11 11 10 9 8 7 6 5 5 5 4 3 4 4 5 5 7 7 7 8 6 9 9 10 9 10 11 11 12 12 12 10
11 11 11 12 13 13 13 12 12 11 12 11 10 10 10 9 8 8 7 6 5 5 4 4 4 5 5 6 6 7 8 8 9 8 9 10 10 11 11 11 12 12 11 11
11 11 12 12 12 12 13 12 12 11 11 10 10 10 9 8 7 7 7 7 6 6 5 4 3 5 6 4 4 7 8 9 8 8 9 9 10 11 11 12 12 12 12 11
12 12 12 12 12 12 12 12 11 11 10 10 10 10 9 8 8 8 8 8 6 5 4 4 5 6 5 4 5 8 8 9 8 9 10 11 11 11 12 12 12 12 12 11
12 12 12 12 12 12 12 12 11 11 10 10 10 11 10 8 8 8 9 7 5 4 4 4 6 6 6 6 7 8 9 10 9 10 11 11 11 12 12 12 12 12 12 11
13 13 13 13 13 13 12 12 11 11 10 10 10 10 9 9 8 9 7 6 5 3 4 5 5 4 5 6 8 9 9 10 10 11 11 11 12 12 12 12 12 12 12 11
13 13 13 13 13 13 12 12 11 11 10 11 11 10 9 9 9 10 10 6 4 4 5 5 4 4 5 8 9 9 10 10 12 12 11 11 11 12 12 12 12 12 11 11
14 13 13 13 13 12 13 12 11 10 10 10 10 9 9 10 10 8 5 5 4 4 4 4 5 4 6 9 10 10 10 12 12 12 11 11 12 12 12 12 12 12 11 11
13 13 13 13 13 13 12 12 11 11 11 11 10 9 8 7 8 7 6 6 4 5 5 4 4 5 9 10 10 11 12 12 12 12 12 12 12 12 12 12 12 12 12 12
13 13 13 12 13 13 12 12 13 12 12 12 11 10 7 6 6 6 6 5 5 5 6 7 8 9 10 10 10 11 12 13 12 12 12 12 12 12 11 12 12 12 12 12
12 11 12 13 12 12 12 12 12 13 12 12 12 10 8 6 6 6 6 6 6 6 7 9 9 8 10 10 11 12 13 13 12 12 12 12 12 12 12 11 12 12 12 12

GFSNGP_con_lsi_078.txt.gz
Lid_Strength_Index
13 13 13 14 13 13 14 15 16 15 15 13 13 12 11 11 10 10 10 10 11 11 12 12 11 11 11 10 10 10 10 10 10 9 10 10 10 10 9 9 9 8 8 7
15 13 13 14 13 13 13 14 15 14 14 13 12 13 12 11 10 11 11 10 11 11 11 11 11 11 11 11 10 10 10 10 9 10 10 10 9 9 9 9 8 8 8 8
16 13 13 15 13 13 13 13 13 16 14 13 13 11 11 11 11 11 11 12 12 11 11 11 11 10 11 10 10 10 10 9 9 10 9 9 8 8 8 8 8 8 8 8
17 15 19 14 12 12 12 12 12 12 12 11 11 12 12 12 11 12 12 12 12 11 11 11 11 11 10 10 10 9 9 9 9 9 8 8 8 8 8 8 8 9 8 8
18 18 15 14 13 14 13 14 11 12 11 11 11 12 13 11 11 12 12 12 11 11 11 11 11 10 10 10 9 9 9 8 8 8 8 7 8 8 8 9 9 9 8 8
17 19 20 15 13 12 14 18 12 10 11 11 12 15 14 12 11 11 11 11 11 11 11 11 10 10 10 9 9 8 8 7 7 7 7 7 7 8 9 8 8 8 8 8
17 19 16 13 12 12 19 17 12 11 11 11 12 13 12 11 12 11 11 11 11 11 11 10 10 10 9 9 8 7 6 6 6 6 7 7 8 9 9 9 9 9 9 8
18 19 18 12 12 15 14 12 11 11 11 11 12 12 12 11 11 11 11 11 11 11 11 10 9 9 8 8 6 6 6 6 7 7 6 6 8 9 9 10 10 9 8 8
15 15 12 12 13 12 10 11 12 11 11 11 12 12 12 12 12 12 12 11 10 11 10 9 8 8 8 7 6 6 7 7 7 7 7 8 9 9 10 9 10 9 8 9
14 13 12 11 11 10 10 10 10 10 11 11 12 12 12 12 13 12 11 11 10 10 10 9 8 7 6 6 5 6 7 7 7 7 6 9 9 9 10 10 9 8 8 9
15 14 13 11 11 10 10 10 10 11 11 12 12 12 13 13 12 11 11 10 10 10 9 8 7 6 5 5 5 6 7 7 7 7 8 9 9 9 8 8 7 9 9 9
14 13 13 13 11 10 10 10 11 12 12 12 12 13 12 12 11 11 11 10 10 9 8 7 6 6 5 5 5 6 7 7 7 8 9 9 9 9 6 6 6 6 7 8
12 12 11 11 10 10 11 11 11 12 12 13 12 12 12 11 11 9 10 10 9 8 7 6 6 5 5 4 5 6 8 7 8 8 9 9 9 10 10 8 7 7 7 7
11 11 12 11 11 10 10 11 10 12 12 12 12 11 11 11 11 10 10 9 8 7 7 6 5 5 5 5 6 6 7 5 8 9 9 9 9 10 10 10 12 11 9 8
11 12 11 11 11 11 11 12 13 14 13 13 12 11 11 11 11 11 9 7 7 7 7 6 5 5 4 4 6 7 7 7 8 9 9 8 9 10 9 11 11 11 11 10
12 12 11 12 12 12 13 14 14 14 13 13 12 12 12 11 10 10 8 7 8 8 7 6 4 4 4 5 7 7 7 5 7 9 10 10 10 10 11 11 12 12 12 11
12 13 13 13 13 14 14 14 13 13 13 12 13 12 11 11 11 10 8 7 7 7 6 6 6 5 5 6 7 7 8 9 7 10 10 10 10 11 12 11 13 13 12 11
12 11 11 11 13 14 14 13 13 13 13 12 12 11 11 11 11 9 8 7 7 7 7 6 5 5 6 6 5 7 9 9 10 9 9 11 10 11 11 12 12 13 12 11
11 12 12 12 13 13 14 14 13 13 12 12 12 11 11 11 10 9 8 8 8 8 7 5 4 6 6 4 6 9 9 10 10 9 10 10 11 12 12 12 12 12 12 11
12 12 12 12 13 13 14 13 12 12 12 12 11 11 12 11 10 9 9 8 7 5 5 5 6 6 6 6 6 9 9 10 11 10 11 12 12 12 12 12 12 12 12 11
13 12 13 13 14 13 12 12 12 13 12 11 12 13 12 11 10 9 10 9 7 4 4 5 5 5 6 7 8 9 10 11 12 12 13 12 12 12 13 12 12 12 12 11
12 13 13 13 13 14 13 12 12 12 12 12 12 12 12 11 10 10 9 8 5 4 5 5 4 4 6 7 9 10 10 11 13 13 13 12 12 13 13 12 12 12 12 12
13 13 13 13 13 13 13 13 12 12 12 12 12 12 12 11 11 11 11 6 5 4 5 4 4 4 6 10 10 10 11 13 13 13 13 12 12 12 12 12 12 12 12 12
14 14 14 13 13 13 14 13 12 12 12 11 11 11 12 12 11 9 6 5 4 5 4 5 5 5 7 10 11 11 13 13 13 13 13 12 13 12 12 12 12 12 12 12
14 14 14 13 14 14 13 13 13 13 12 13 12 12 11 8 10 7 6 5 5 6 6 5 6 7 10 10 11 13 13 14 13 13 13 13 13 13 12 12 12 12 12 12
14 13 13 13 13 13 13 13 14 14 14 14 14 12 10 8 6 7 6 6 6 6 8 9 9 10 11 11 12 13 14 14 14 14 13 14 13 13 13 12 12 12 12 12
13 12 13 14 13 13 13 13 14 14 13 14 14 13 10 7 6 7 7 7 7 8 10 10 10 9 10 11 13 13 14 14 13 13 14 14 13 13 12 12 12 12 12 12

GFSNGP_con_lsi_081.txt.gz
Lid_Strength_Index
15 14 15 15 14 14 15 15 16 15 15 13 13 12 11 11 12 12 11 11 12 12 13 13 12 12 11 11 11 11 11 11 11 11 11 11 11 10 10 9 9 9 8 8
15 13 13 14 13 13 14 14 15 15 15 13 13 13 12 12 11 11 11 11 11 12 12 12 12 12 12 11 11 11 11 10 10 11 10 10 10 9 9 9 8 8 8 8
17 13 13 14 13 13 14 14 14 16 14 13 14 13 12 12 11 11 11 12 12 12 12 12 12 11 12 12 11 11 11 10 10 10 9 9 9 8 8 8 9 9 9 9
18 15 19 14 13 12 13 12 13 13 13 12 13 13 13 12 11 12 12 12 12 12 12 12 12 12 11 11 11 11 10 10 9 9 9 8 8 8 8 9 9 9 8 8
18 18 15 15 14 15 14 14 12 12 12 13 12 12 13 12 12 13 12 12 12 12 12 12 12 11 11 11 11 10 9 9 8 8 8 8 8 8 8 9 9 8 8 9
18 19 20 16 13 12 15 18 13 11 12 12 13 15 14 13 12 12 12 12 12 12 12 12 11 11 11 11 10 9 8 8 7 8 8 8 8 8 9 9 8 8 9 8
17 19 16 13 13 13 19 17 13 11 12 12 13 13 13 12 12 12 12 12 12 12 12 11 11 11 11 10 9 8 7 7 7 7 7 7 8 9 9 9 9 10 9 9
18 19 19 12 13 16 14 12 12 12 12 12 12 13 13 12 12 12 12 12 12 12 12 11 11 11 9 9 7 7 6 7 7 7 7 6 9 9 9 10 10 10 9 8
15 15 12 12 14 13 11 11 11 11 12 12 13 13 12 12 12 13 13 12 12 12 12 11 10 9 9 8 7 6 7 7 7 7 7 7 9 10 10 9 10 9 9 9
14 14 13 12 12 11 10 11 11 11 12 12 13 12 13 13 14 13 12 12 11 11 11 11 9 8 8 7 6 6 7 7 7 8 7 8 9 9 10 9 10 9 9 9
15 13 13 12 12 10 10 10 11 11 12 12 12 13 13 14 13 13 12 11 11 11 11 9 8 8 7 6 6 7 7 7 8 7 8 9 9 9 8 9 8 8 9 9
14 12 13 13 12 10 10 11 11 12 13 12 12 13 13 14 13 12 12 11 11 10 10 8 8 7 7 6 6 7 7 8 8 8 9 10 10 9 6 6 6 6 7 8
12 13 12 11 11 10 10 11 11 12 12 13 13 13 13 13 12 10 12 11 11 10 9 8 7 7 6 6 6 7 8 8 8 8 10 10 9 10 10 9 7 8 8 8
12 11 12 11 12 11 11 11 10 12 12 13 13 13 12 12 12 12 12 11 10 8 8 7 7 7 6 6 6 7 8 5 8 9 10 10 10 10 10 11 12 12 10 9
12 12 11 11 11 12 12 12 13 13 14 14 13 12 12 13 13 12 11 10 9 8 7 7 7 7 5 6 7 8 8 8 9 10 10 9 10 11 11 11 12 12 12 10
12 12 12 12 12 13 13 13 14 14 14 14 13 13 13 12 12 11 10 9 9 9 8 7 7 7 6 7 7 7 8 6 7 10 11 10 11 10 12 12 12 13 13 12
13 13 13 14 13 14 13 13 13 14 14 14 14 13 12 12 12 11 10 9 8 8 8 7 7 6 6 7 6 6 9 9 7 11 9 11 11 11 12 12 13 13 12 11
12 11 11 11 13 14 14 14 14 14 14 14 13 12 12 12 13 12 11 9 8 8 8 6 6 6 7 5 6 8 10 10 10 11 10 11 11 11 12 13 13 13 12 11
11 11 12 12 13 13 14 14 14 14 13 13 13 13 13 13 13 12 10 9 9 9 8 5 5 6 7 5 7 9 10 10 11 12 11 11 12 12 13 13 13 12 12 12
12 12 12 13 13 13 14 14 13 13 13 12 13 13 13 13 13 12 11 10 8 6 5 5 5 7 6 7 6 10 10 11 12 13 12 12 12 12 13 13 12 12 12 12
12 12 12 13 14 14 13 13 13 13 13 12 13 14 14 13 12 11 11 11 7 5 5 4 5 5 6 8 9 10 11 12 13 14 13 12 13 13 13 13 12 12 12 12
12 13 14 14 14 14 13 13 13 13 13 13 13 13 13 13 13 12 10 9 6 5 5 5 5 5 7 8 10 11 12 13 14 14 13 13 13 13 13 12 13 13 12 12
13 13 14 14 13 14 13 13 13 13 13 13 13 13 14 13 13 12 11 6 5 5 6 5 5 5 7 10 11 12 13 14 14 14 14 13 13 13 13 13 12 12 12 13
14 13 14 14 13 13 14 14 13 13 13 13 13 13 13 14 13 10 7 6 5 5 6 6 7 7 8 11 12 13 14 14 14 14 14 12 13 13 13 13 13 12 12 13
13 14 14 14 14 14 14 14 14 14 14 14 13 13 13 12 12 9 7 7 6 7 8 7 7 8 11 12 13 14 14 14 13 13 14 14 13 13 13 13 12 12 12 13
14 13 13 13 13 14 14 14 14 15 15 15 15 13 12 11 8 7 7 7 8 8 10 10 10 11 12 12 13 14 14 14 14 14 14 14 13 13 13 13 13 13 12 13
14 13 14 14 14 13 13 13 14 15 15 14 14 13 12 10 9 8 8 10 10 11 11 11 11 10 11 12 14 14 15 15 13 13 14 14 13 13 13 13 13 13 12 12

GFSNGP_con_lsi_084.txt.gz
Lid_Strength_Index
15 15 15 16 15 15 16 16 16 16 15 13 13 12 12 12 12 12 12 12 12 13 13 13 13 12 12 11 11 11 11 11 11 11 11 12 11 11 10 10 10 9 9 8
16 13 14 14 14 14 14 15 15 15 15 13 14 13 12 12 12 12 12 12 12 12 13 12 12 12 12 12 12 12 12 11 11 11 11 11 10 10 10 9 9 9 9 9
17 13 13 15 13 14 14 14 14 16 14 13 14 13 13 13 12 12 12 12 13 13 12 12 12 12 12 13 12 12 12 11 11 10 10 10 9 9 9 9 9 9 9 9
18 15 19 14 13 13 13 13 13 13 13 13 13 14 14 13 12 12 12 13 13 12 12 12 12 13 13 12 12 12 12 11 10 10 9 9 9 9 9 9 9 9 9 8
19 18 15 15 14 15 15 15 12 13 13 13 13 13 13 13 13 13 13 13 13 12 12 13 13 12 12 12 12 12 11 10 9 9 9 8 8 8 8 9 9 9 8 9
17 19 20 16 14 13 15 18 15 12 13 13 13 16 15 14 13 13 12 12 12 12 13 13 12 12 12 12 11 10 9 9 8 9 8 8 8 8 9 9 9 8 9 9
17 19 16 13 13 13 19 17 13 12 12 13 14 13 13 13 13 12 12 12 13 13 13 12 12 12 12 11 11 9 8 8 8 8 8 7 8 9 9 9 10 10 10 9
18 19 19 12 14 16 14 13 13 13 12 12 13 13 13 13 13 12 13 13 13 13 13 13 12 12 11 11 9 8 8 8 8 8 7 6 9 9 9 10 10 10 10 9
16 16 13 13 14 13 12 12 12 12 12 12 13 13 13 13 13 13 13 13 13 13 13 12 12 11 10 9 8 8 8 8 8 8 7 8 9 10 10 10 10 10 10 9
15 14 13 12 12 12 11 12 11 12 12 12 13 13 13 13 14 14 14 13 13 12 12 12 11 10 9 8 7 8 8 8 8 8 7 8 9 10 10 10 10 10 9 9
15 14 14 13 12 11 11 11 11 12 12 12 13 13 13 14 14 14 13 13 12 12 12 11 10 9 8 7 8 8 8 8 8 8 9 10 10 10 9 9 9 9 9 10
14 13 14 13 12 11 11 11 11 12 13 12 12 13 14 14 14 13 13 12 12 12 12 10 9 8 7 7 8 8 8 8 8 8 10 10 11 10 7 6 7 7 8 9
12 14 13 13 11 11 11 11 11 12 12 13 13 13 14 14 13 11 12 12 12 12 11 10 9 8 7 7 8 8 9 9 9 9 10 11 11 11 11 9 8 8 8 8
13 12 13 12 11 11 11 11 10 12 12 13 13 14 13 13 13 13 13 12 11 10 10 9 8 8 7 7 8 8 9 6 9 10 11 11 11 11 12 11 12 12 10 10
12 12 13 12 11 12 12 12 13 13 13 14 14 13 13 14 13 12 12 11 11 10 9 8 8 8 7 7 8 8 9 9 9 10 11 10 11 12 10 12 12 12 12 11
14 13 13 12 12 13 13 13 13 14 14 14 14 14 14 13 12 12 12 11 11 10 9 9 8 6 6 8 8 7 9 7 7 10 11 11 13 11 12 12 13 13 13 12
13 14 13 14 13 14 13 13 13 14 14 14 14 14 13 13 13 13 12 11 10 10 9 7 7 6 7 7 7 7 10 10 8 11 12 12 12 12 13 13 13 13 12 11
11 11 11 11 12 13 13 13 14 14 14 14 14 13 13 13 14 13 13 11 10 9 9 7 6 6 7 6 7 9 10 11 11 12 12 12 12 12 13 13 13 13 12 12
11 11 12 12 12 13 14 14 14 14 14 13 13 14 14 14 14 13 12 11 11 11 9 6 5 5 6 6 8 10 11 12 12 13 13 11 12 12 13 14 13 12 12 13
12 12 12 13 12 13 14 14 14 14 13 13 14 14 15 14 14 14 13 12 10 7 6 6 6 6 7 8 8 11 11 12 13 14 13 13 14 13 13 13 13 12 13 13
12 13 13 13 13 13 13 13 13 14 14 13 14 15 14 14 14 14 13 12 9 7 6 5 6 7 8 10 11 12 13 14 14 15 13 14 13 13 13 13 13 12 13 12
13 13 13 13 13 14 14 13 13 13 14 14 14 14 14 15 15 14 12 10 7 6 7 6 7 7 9 9 12 13 14 14 14 15 15 14 13 14 13 13 14 13 13 12
13 13 13 13 14 14 14 13 14 14 14 14 14 14 15 15 15 15 14 7 7 7 7 7 7 7 9 13 13 14 14 15 15 15 15 13 14 13 14 14 13 13 13 13
13 13 14 14 13 13 14 15 14 14 14 14 14 14 14 15 15 13 9 6 6 7 8 9 8 8 10 14 14 14 15 15 15 15 14 13 14 13 13 13 13 13 13 13
13 14 13 13 14 14 14 15 15 14 14 15 14 14 14 14 14 12 9 8 8 10 11 8 8 9 13 14 14 15 15 15 14 14 14 14 14 13 13 13 13 13 13 13
13 13 13 14 14 14 14 14 15 15 15 16 15 14 13 13 11 10 9 8 10 10 11 11 11 12 13 14 14 15 15 15 15 15 14 14 14 13 13 13 13 13 13 13
14 13 14 15 14 14 14 14 15 15 15 14 14 14 13 12 11 11 10 12 12 12 12 11 11 11 12 13 15 15 15 15 13 14 14 14 14 13 13 13 13 13 13 13

GFSNGP_con_lsi_087.txt.gz
Lid_Strength_Index
13 14 14 14 14 14 14 14 14 13 14 12 11 11 10 9 10 10 11 11 11 11 11 11 10 10 9 9 9 8 8 8 9 8 8 8 8 8 8 7 6 6 6 5
14 12 13 13 13 13 13 13 13 13 13 11 11 11 10 10 10 11 11 10 11 11 11 10 10 10 9 9 9 9 9 9 8 8 8 8 8 7 7 6 6 5 5 5
15 13 13 14 12 12 13 13 12 14 11 11 11 11 11 11 10 10 11 11 11 11 10 10 10 9 9 9 10 10 9 9 9 8 8 7 7 6 6 6 5 5 5 5
16 15 17 12 11 11 12 12 12 12 11 12 12 12 12 12 10 10 10 10 11 11 10 10 9 9 10 10 10 9 9 9 8 8 7 7 6 6 6 5 5 5 5 5
16 17 14 14 13 13 13 13 13 12 12 12 12 11 11 12 11 10 10 11 11 10 10 10 10 11 10 10 10 9 9 8 8 7 7 7 6 6 5 5 5 5 5 6
16 17 18 14 12 11 13 16 13 11 12 12 11 12 11 12 11 11 11 11 10 10 10 11 11 10 10 10 9 9 8 7 7 6 7 6 6 5 5 5 6 6 6 6
16 16 14 12 12 11 16 15 11 10 11 11 11 11 11 12 12 11 11 10 10 11 11 11 10 10 10 10 9 8 7 6 6 6 6 5 5 5 6 6 7 7 7 7
16 16 17 11 12 14 12 11 10 10 10 11 11 12 12 12 11 11 11 11 11 12 11 11 10 10 9 9 8 7 7 6 6 6 6 5 5 6 6 7 7 8 8 8
14 14 11 11 12 11 11 10 10 10 10 10 12 12 12 12 11 11 11 12 12 11 11 10 10 9 9 8 7 7 6 6 6 6 5 5 6 7 7 8 8 8 9 9
13 12 12 11 11 11 10 10 9 9 10 11 11 12 12 12 12 12 12 12 11 11 11 10 10 9 8 8 6 6 6 6 6 6 5 6 6 7 8 8 9 9 9 9
13 12 12 12 12 11 10 9 9 10 11 11 11 12 12 12 12 12 12 11 11 11 10 10 9 8 8 6 6 6 6 6 6 6 6 7 7 8 8 8 8 9 9 9
12 11 11 11 12 11 11 10 10 11 11 11 11 11 11 12 12 12 12 11 11 10 10 10 9 8 7 6 6 6 6 7 6 6 7 8 9 9 7 8 8 8 8 9
10 11 11 11 11 10 10 9 10 11 11 11 11 11 12 13 12 11 11 11 11 10 10 9 8 7 7 6 6 7 7 7 6 7 7 9 9 10 10 9 9 9 9 9
10 11 11 11 11 11 10 10 9 11 11 11 11 12 12 12 12 12 11 11 10 10 10 9 8 7 6 6 6 6 7 6 7 7 8 9 9 10 11 11 12 12 10 10
8 11 10 11 11 12 11 11 12 12 12 12 12 12 12 13 12 12 11 10 10 10 10 8 8 7 6 6 6 6 7 7 7 8 9 9 10 11 11 12 12 12 12 11
11 11 12 11 12 12 12 12 12 12 12 12 13 13 13 12 12 12 11 10 10 11 10 8 7 6 6 6 6 6 7 7 8 9 10 10 11 11 12 12 13 13 12 12
11 12 13 13 13 13 12 12 11 12 13 13 14 13 12 12 12 12 12 11 10 10 8 7 7 6 6 6 6 8 9 9 9 10 11 11 11 12 12 13 13 13 12 11
9 9 10 11 12 13 13 12 12 12 13 14 13 13 13 13 13 13 12 11 11 9 8 7 6 7 7 7 8 9 10 11 11 12 12 12 12 12 12 13 13 12 12 11
10 10 11 12 11 12 12 12 12 13 13 13 13 13 13 13 12 12 12 12 11 10 9 7 7 8 8 8 9 10 11 12 12 12 12 12 13 13 12 13 13 13 12 12
11 11 12 12 12 12 12 12 13 13 13 13 14 14 14 13 13 13 12 12 10 8 7 7 7 9 9 10 10 12 12 12 13 13 13 13 13 13 13 13 13 13 12 12
12 12 13 12 12 12 12 12 13 13 14 13 14 14 14 14 13 13 13 12 10 7 7 7 8 9 10 11 12 12 13 13 13 13 14 14 14 14 14 13 13 13 13 13
13 13 13 12 12 13 13 13 13 13 14 14 14 14 14 14 13 13 12 11 9 8 7 7 8 8 10 11 12 13 13 13 13 13 14 14 14 14 14 13 13 13 13 13
13 13 13 12 13 13 13 13 13 14 14 14 14 14 14 13 13 13 12 9 9 8 9 8 8 9 10 12 13 13 13 14 14 13 14 14 14 14 13 13 13 13 13 13
13 13 13 13 12 13 14 15 14 14 14 14 14 13 13 13 13 11 10 9 8 9 9 8 8 9 11 12 13 13 14 14 14 13 14 13 13 13 13 13 13 13 13 13
13 13 12 13 13 14 14 14 14 15 14 14 14 13 12 12 12 11 10 10 10 11 10 8 9 10 12 12 13 14 14 14 13 13 14 14 14 13 13 13 13 13 13 13
13 13 13 13 13 14 14 14 15 15 14 15 15 13 12 12 11 11 11 11 11 11 11 10 10 11 12 12 13 13 14 13 13 13 13 13 13 13 13 13 13 13 13 13
13 12 14 14 14 14 14 14 15 15 14 14 14 13 12 12 11 12 12 13 12 12 12 11 11 10 11 12 13 13 13 13 13 13 13 13 13 13 13 13 13 13 13 13

GFSNGP_con_lsi_090.txt.gz
Lid_Strength_Index
10 10 10 11 12 11 12 11 13 12 12 10 9 9 8 7 7 8 7 7 7 7 7 7 7 7 6 6 6 6 6 6 6 6 6 6 6 6 6 5 5 4 4 3
12 11 10 12 10 11 11 11 10 10 10 9 8 8 7 6 7 7 7 8 8 8 8 8 7 7 6 6 6 6 6 7 7 6 6 6 6 5 5 4 4 3 3 3
13 11 11 12 11 10 10 10 10 11 9 8 9 8 7 7 7 7 7 7 8 8 7 7 7 7 7 7 7 7 8 7 7 7 6 6 5 5 4 4 3 3 3 3
12 11 14 10 9 10 11 10 10 10 9 9 9 9 9 8 7 7 7 7 7 7 7 7 7 7 7 7 8 8 7 7 7 6 6 5 5 4 3 3 3 3 3 3
13 12 11 12 11 11 12 11 11 10 10 10 9 8 9 9 8 6 6 7 7 7 7 7 7 7 8 8 8 7 7 7 6 6 5 5 4 4 3 3 3 3 3 4
12 15 15 11 10 9 11 13 10 9 9 9 8 9 8 9 8 8 7 7 7 7 7 7 8 8 8 8 8 7 7 6 5 5 4 4 3 3 3 3 3 4 4 5
12 13 11 9 9 10 13 12 9 8 8 8 8 8 9 8 8 7 8 8 8 7 8 8 8 8 8 7 7 7 6 5 5 4 4 3 3 3 3 3 4 5 6 6
12 13 14 9 10 12 10 8 8 8 8 8 8 9 8 8 8 8 8 8 8 8 9 8 8 8 7 7 6 6 5 5 4 3 3 4 3 3 4 5 6 7 7 6
10 10 8 8 9 9 9 8 7 7 7 7 9 9 9 9 9 8 8 8 8 9 9 8 7 7 7 7 6 5 4 4 4 3 3 3 4 4 5 6 7 7 8 8
9 9 8 8 8 8 8 8 7 7 7 7 8 8 9 9 9 9 8 9 9 9 9 8 7 7 6 6 5 4 4 4 4 4 4 4 4 5 7 7 8 8 9 9
8 7 7 7 8 8 8 8 8 8 8 7 7 8 8 9 9 9 9 9 9 9 8 8 7 7 6 5 4 4 4 4 4 4 4 5 5 7 7 7 8 9 9 9
8 7 7 7 7 8 8 8 8 8 8 7 7 8 8 9 8 9 9 9 9 8 8 8 7 7 6 4 4 4 4 4 5 5 6 6 7 7 7 8 8 8 9 9
6 6 6 6 7 7 8 8 8 8 7 8 8 8 8 9 9 9 9 9 9 8 8 8 7 7 6 5 4 5 5 5 5 6 6 7 8 8 10 9 9 9 9 9
6 6 7 6 7 7 8 8 8 8 7 8 8 8 8 9 9 10 9 9 8 8 8 8 7 7 6 5 5 5 5 6 6 7 7 8 8 10 11 12 13 12 10 10
7 5 5 6 7 8 8 9 9 9 9 9 8 8 9 10 10 9 9 9 8 8 9 8 8 7 7 7 6 6 7 7 8 8 8 9 10 11 12 12 13 12 12 11
6 6 6 7 7 8 9 9 9 9 9 9 9 9 10 9 9 9 9 8 9 9 9 8 8 8 8 8 8 8 9 9 9 9 9 10 11 12 12 13 13 13 12 12
7 8 8 8 8 8 9 9 9 9 9 9 9 10 10 10 10 10 9 9 9 9 9 8 8 8 8 8 8 9 10 10 10 10 10 11 12 12 12 12 12 12 12 11
5 5 5 5 7 8 9 9 9 8 9 9 10 10 10 10 10 10 10 9 10 10 9 7 7 8 8 8 9 10 10 11 11 11 11 12 12 12 12 12 13 13 12 12
5 6 6 6 6 7 9 9 9 8 9 10 10 10 10 10 10 10 10 10 11 11 9 7 7 8 8 9 9 10 11 11 11 11 11 12 13 12 13 13 13 13 13 12
5 5 5 6 7 8 9 9 9 9 9 10 11 11 11 11 10 10 10 11 11 10 8 7 7 8 9 10 10 11 11 11 12 11 12 13 13 13 13 13 13 13 13 13
7 5 6 7 9 9 9 9 9 10 10 11 11 11 11 11 10 10 11 12 11 9 8 8 7 8 9 10 11 11 11 11 11 12 13 14 14 14 13 13 13 13 13 12
7 7 7 9 9 10 9 9 9 10 11 11 11 11 12 12 11 10 10 11 10 9 8 8 7 9 9 10 11 11 11 11 11 12 14 14 14 14 13 13 13 13 12 12
9 9 10 10 10 10 9 9 10 11 11 12 12 11 11 11 10 11 12 10 10 10 9 8 8 9 10 10 11 11 12 12 11 13 13 13 13 13 13 13 13 12 12 12
10 10 10 10 9 10 11 11 11 11 11 11 11 11 11 11 10 9 9 9 10 10 10 9 9 9 10 10 11 11 11 11 12 13 13 13 13 12 12 12 13 13 12 12
10 10 10 10 10 10 11 11 11 12 12 11 11 11 10 9 10 10 9 10 11 11 10 10 10 10 10 10 10 11 11 11 11 12 13 13 12 12 12 12 12 12 12 12
10 10 9 9 10 10 11 11 11 11 12 12 11 11 10 9 9 9 9 10 11 12 11 10 9 10 10 10 10 10 11 11 11 12 12 11 12 12 12 12 12 12 12 12
10 10 10 11 10 11 11 11 12 12 12 11 12 11 10 10 10 10 10 11 12 12 11 11 10 10 10 10 10 10 10 10 11 11 11 11 11 11 11 11 12 12 12 11

GFSNGP_con_lsi_093.txt.gz
Lid_Strength_Index
9 10 9 10 11 11 12 11 13 11 11 10 9 9 7 7 7 8 8 7 7 6 6 6 6 6 6 6 6 5 6 5 5 6 6 6 7 6 6 6 6 5 5 4
10 10 9 10 9 9 10 10 11 10 11 8 8 7 7 7 6 6 6 6 6 6 6 6 6 6 6 6 6 5 6 6 6 7 7 7 6 6 6 5 5 4 4 4
12 10 9 11 10 10 9 9 9 11 9 7 8 7 6 6 6 6 6 6 7 7 7 6 6 6 6 6 6 6 6 7 7 7 7 7 6 6 5 5 4 4 4 3
12 10 14 10 8 9 10 10 10 10 8 8 8 8 7 6 6 6 6 6 6 6 6 6 6 6 6 6 6 7 8 8 7 7 7 6 5 5 4 4 4 3 3 3
13 12 11 10 10 10 11 12 9 9 8 8 8 7 8 7 6 5 5 5 6 6 6 6 6 6 7 7 8 8 8 7 7 6 6 5 5 4 4 3 3 3 3 4
11 15 15 11 9 9 10 13 8 8 8 8 8 9 8 7 6 6 6 6 6 6 6 7 7 7 7 8 8 8 7 7 6 5 5 4 4 4 3 3 3 3 4 5
11 13 10 9 8 8 13 12 8 7 7 7 8 8 8 7 7 6 6 6 6 7 7 7 7 8 8 8 8 7 7 6 5 4 4 4 3 3 3 4 4 4 5 6
10 13 15 8 8 11 9 7 7 7 7 7 7 8 8 7 7 7 7 7 7 7 8 8 8 8 8 8 7 6 6 5 4 3 3 3 3 3 3 4 5 6 7 7
9 10 6 6 7 6 7 8 7 7 6 6 7 7 7 7 7 7 7 8 7 8 9 8 8 7 8 7 7 6 5 4 3 3 3 3 3 4 5 5 7 8 8 8
8 7 6 6 6 7 6 7 6 6 7 7 7 8 7 7 8 8 8 8 8 9 9 8 8 7 7 7 6 6 5 4 3 3 3 3 4 4 6 7 8 8 9 9
7 6 6 6 6 6 6 6 7 7 6 7 7 7 7 7 8 7 8 8 8 9 8 8 7 7 7 6 6 6 5 5 4 4 4 5 6 6 7 8 8 9 9 9
9 6 6 6 5 5 6 6 6 7 7 7 7 6 7 7 7 7 8 8 9 8 8 8 8 7 7 6 6 7 7 7 6 6 7 7 8 8 7 7 8 8 8 9
7 5 5 5 4 5 6 6 6 6 6 7 7 6 7 7 7 7 9 9 8 8 8 8 8 8 7 7 7 8 8 8 8 8 9 9 9 9 11 10 9 9 9 9
6 6 7 5 6 5 5 6 6 6 7 7 7 6 7 7 8 9 9 8 8 8 8 8 8 8 7 7 7 8 8 8 9 9 9 10 10 10 11 12 13 12 10 10
7 6 6 5 5 5 5 6 7 8 8 8 7 7 7 8 9 9 8 8 8 8 8 9 9 9 7 7 8 8 8 9 10 10 10 10 10 11 12 12 13 12 12 11
6 6 6 6 6 5 6 6 7 8 8 8 7 7 7 8 9 9 8 8 9 9 9 9 9 8 7 7 8 8 9 10 10 10 10 10 11 12 12 12 12 12 13 12
6 7 6 7 6 6 6 6 6 7 8 8 7 7 8 9 9 9 9 9 8 9 9 9 10 8 7 7 8 9 10 10 10 10 11 11 12 12 13 13 13 13 13 12
5 5 5 5 5 6 6 6 6 7 8 8 7 8 9 10 10 10 9 9 9 10 10 10 9 8 7 8 9 9 10 11 11 11 11 11 12 12 13 13 13 13 13 12
5 6 5 4 4 5 6 6 7 7 8 8 8 9 9 9 9 10 10 10 10 11 11 9 9 8 8 8 9 10 11 11 11 11 11 11 13 13 13 13 13 13 12 13
6 5 4 4 4 5 6 6 7 8 8 8 8 10 10 10 10 10 10 10 10 10 10 9 9 9 8 9 10 10 11 11 11 11 11 13 14 14 13 13 13 13 13 13
6 6 4 4 5 5 6 6 8 9 8 8 9 10 10 10 10 10 11 11 10 10 10 10 10 9 8 9 9 10 10 11 11 11 12 14 14 13 13 13 13 13 13 12
7 6 4 4 5 6 6 7 8 8 8 9 10 10 11 11 10 10 10 10 10 10 9 10 10 10 10 9 9 10 10 11 11 11 13 13 13 13 13 13 13 13 12 12
6 5 5 6 6 7 8 8 9 8 9 10 11 11 10 10 10 11 12 10 9 10 10 10 11 11 10 9 9 9 10 10 11 12 13 13 12 13 13 13 13 12 12 12
6 6 6 6 6 9 9 9 9 9 10 10 10 10 10 10 10 9 9 9 10 10 10 11 11 11 10 9 9 9 9 10 10 12 12 12 12 11 12 12 12 12 12 12
7 7 8 9 9 9 9 9 9 10 11 11 11 10 9 9 10 10 9 9 10 10 11 12 12 11 10 9 9 9 9 9 10 11 11 11 11 11 11 12 12 12 12 12
9 9 8 8 9 8 9 9 10 10 11 11 11 10 10 9 10 9 9 10 11 11 11 11 11 11 10 10 9 9 9 9 9 9 9 10 11 12 12 12 12 12 12 11
9 8 9 9 9 9 9 9 10 11 11 11 11 10 10 10 10 9 10 10 11 11 12 11 11 11 11 10 9 9 9 9 8 9 8 10 11 11 11 11 11 11 11 10

GFSNGP_con_lsi_096.txt.gz
Lid_Strength_Index
10 10 10 10 11 12 13 13 15 14 13 12 11 10 9 9 9 9 9 8 9 9 10 10 9 9 9 8 8 8 8 8 8 8 8 8 9 9 9 9 9 9 8 8
12 9 10 11 10 10 10 11 12 12 13 10 9 9 9 9 9 9 9 8 7 7 8 8 9 9 9 9 9 8 8 8 8 8 8 9 10 9 9 9 9 8 7 7
14 10 10 13 11 10 10 11 12 13 11 9 9 8 8 8 7 8 8 8 8 8 9 9 9 9 9 9 9 9 9 9 9 9 10 9 9 9 9 8 7 7 7 6
14 12 18 12 9 9 10 10 10 10 9 9 9 10 9 9 8 8 8 8 8 9 9 9 9 8 9 9 9 9 10 10 10 9 9 9 9 8 8 7 7 7 6 6
16 15 12 11 10 11 12 12 9 9 9 9 9 10 11 8 7 7 7 8 8 8 8 8 9 9 9 9 10 10 10 10 9 9 9 8 8 7 7 7 7 6 6 6
13 18 19 12 10 9 11 15 9 9 9 10 9 12 12 9 8 8 8 8 8 8 8 9 9 9 10 11 11 10 9 9 9 9 9 8 7 6 6 6 6 5 6 6
14 16 13 10 9 9 15 14 9 8 9 9 10 11 10 8 9 8 8 8 8 9 9 10 9 10 11 10 10 9 9 9 8 8 8 7 7 6 6 6 6 7 6 8
13 16 17 8 9 12 11 10 9 9 8 9 9 9 9 9 9 8 9 8 8 9 10 10 10 11 11 10 9 9 9 8 8 9 8 7 7 7 6 7 7 8 10 10
11 12 8 7 8 8 8 9 9 9 9 8 9 10 9 10 9 9 9 9 9 9 10 11 10 10 11 10 9 9 9 9 9 9 9 9 9 9 9 9 10 11 10 11
10 8 8 7 7 7 7 8 8 8 8 8 9 9 10 10 9 9 9 9 9 10 11 11 10 9 9 9 8 9 9 9 10 10 10 10 10 10 11 11 11 11 11 11
10 9 8 7 7 7 7 7 8 7 8 8 8 9 9 9 9 9 9 9 10 11 11 10 10 9 9 9 9 9 9 10 10 10 10 11 11 11 11 11 10 10 11 11
12 9 9 8 7 6 7 7 7 8 8 8 8 9 9 9 9 9 9 10 10 10 10 10 10 9 9 9 9 9 10 10 10 11 11 12 12 12 8 8 8 9 9 10
10 9 8 8 7 7 7 7 7 7 7 8 8 8 9 9 9 7 9 10 10 10 10 10 10 10 10 9 9 9 10 10 11 11 12 12 12 13 14 11 10 9 9 9
8 9 10 8 9 7 7 7 6 6 7 7 8 8 9 9 8 9 10 10 10 10 10 10 10 11 9 10 9 8 8 8 12 13 12 13 13 13 12 13 13 13 11 10
8 8 8 8 8 8 7 7 8 8 8 8 8 9 9 9 9 10 10 10 10 10 10 10 11 11 10 9 9 9 9 11 12 13 13 12 13 14 12 12 13 13 12 11
8 8 8 8 8 8 8 8 9 8 8 8 9 9 10 9 9 10 10 10 11 11 11 11 11 10 10 10 10 9 11 9 10 13 13 13 13 12 13 13 14 13 14 13
9 9 8 8 8 8 8 8 8 8 8 8 9 9 9 9 10 11 11 10 11 11 11 11 12 11 10 10 10 10 11 12 10 13 13 13 12 13 13 14 14 14 13 12
7 7 7 7 7 7 8 7 8 8 8 8 9 10 10 10 12 12 11 12 11 12 11 11 11 11 11 11 11 11 12 12 13 13 12 12 12 13 14 14 14 14 13 13
7 7 7 7 7 7 7 7 8 8 8 8 9 10 10 10 11 11 12 12 12 13 12 11 10 11 13 11 10 11 12 12 13 13 12 12 13 14 14 14 14 13 14 14
7 7 7 7 6 6 7 7 7 8 8 9 10 10 10 11 12 12 12 12 12 12 11 11 11 13 13 12 10 12 12 12 13 13 13 13 14 14 14 13 13 13 14 13
8 7 7 7 6 6 7 7 8 8 8 9 10 11 11 12 12 12 13 14 12 11 11 10 12 13 13 12 11 12 11 12 12 13 14 13 13 14 14 14 13 13 13 13
9 9 8 7 6 7 7 7 8 8 9 10 10 10 12 13 12 12 12 13 12 10 10 12 13 12 13 11 12 12 11 11 12 13 12 13 13 14 14 13 13 13 13 13
8 8 7 7 7 7 7 8 8 9 10 11 11 12 13 13 12 13 14 11 11 11 12 13 12 12 11 13 12 12 11 11 11 12 12 12 12 12 12 12 13 12 13 13
7 7 7 6 7 8 9 9 9 10 11 11 11 12 12 13 13 12 11 10 10 11 12 12 13 12 11 14 13 12 11 11 11 11 11 9 11 11 12 12 13 12 12 12
8 8 7 8 8 9 9 11 11 11 11 12 12 12 12 11 13 12 11 11 10 12 13 12 12 12 14 14 13 12 12 11 11 11 11 11 10 11 11 12 12 12 12 12
9 9 8 8 9 10 11 11 12 12 12 13 13 13 12 11 11 11 11 11 12 12 14 14 14 14 14 14 13 13 12 11 11 11 10 9 9 10 11 11 11 12 11 11
9 9 10 10 10 10 10 11 12 13 12 13 13 13 12 12 11 12 11 13 14 14 14 14 14 13 14 14 14 13 12 11 10 10 10 9 9 9 10 11 11 11 11 10

GFSNGP_con_lsi_099.txt.gz
Lid_Strength_Index
12 12 11 12 11 11 13 15 17 15 15 13 12 11 11 10 10 10 10 10 10 10 11 11 11 12 12 11 11 10 10 10 10 10 10 10 10 10 11 11 10 10 10 9
13 11 11 13 11 11 12 12 13 12 13 11 9 9 10 10 10 10 10 9 9 9 10 10 10 10 10 10 10 10 10 10 9 9 9 10 10 10 10 10 9 9 8 8
16 12 12 14 12 12 13 12 13 15 12 11 11 10 10 10 9 9 9 9 9 10 10 10 10 10 11 11 10 10 10 9 10 10 10 10 10 10 10 10 10 9 8 7
16 13 18 13 11 11 12 11 11 11 11 10 11 11 11 10 9 9 9 9 10 10 10 10 10 10 10 10 11 10 11 11 11 10 10 10 10 10 10 10 10 9 7 7
17 16 13 13 12 13 13 13 11 11 10 10 10 11 11 9 8 9 9 9 10 10 10 10 10 10 10 10 11 11 11 11 10 10 10 10 10 10 10 10 9 8 7 7
16 18 19 13 11 10 12 17 11 10 11 11 10 13 13 10 9 10 9 9 9 10 10 10 10 10 10 11 12 11 11 10 10 10 10 10 10 10 10 10 9 8 8 8
17 19 13 11 10 10 16 15 11 10 10 10 12 11 11 9 10 10 9 10 10 10 11 11 10 10 12 12 11 10 10 9 10 10 10 10 10 11 11 11 10 11 10 11
16 18 17 9 10 13 11 11 10 10 10 11 11 10 10 10 11 10 11 10 10 11 11 11 11 12 12 12 10 10 10 10 10 11 9 9 11 11 11 11 12 13 12 12
14 13 10 10 10 9 8 9 10 10 10 10 11 11 10 11 11 11 11 10 10 11 11 11 12 11 12 11 10 10 10 11 11 10 10 10 11 12 12 13 13 13 12 13
13 12 11 10 9 9 8 9 8 8 8 9 10 10 11 11 11 11 10 10 10 10 11 12 11 11 10 10 10 11 12 12 11 10 10 11 11 12 13 13 13 12 12 12
13 11 11 10 10 9 8 7 8 8 8 8 9 10 10 11 11 11 10 10 10 11 12 12 11 10 10 10 11 11 12 12 11 10 12 12 12 12 12 12 10 11 11 11
14 11 12 11 9 8 9 9 8 8 8 8 9 9 10 11 11 11 10 10 11 12 11 11 11 11 11 11 11 12 12 11 10 11 12 13 13 13 9 9 9 9 9 10
12 12 11 11 10 8 9 9 8 8 8 8 9 9 10 11 11 9 10 10 11 12 11 11 11 12 11 11 11 11 13 11 12 12 13 13 13 14 15 12 10 10 10 10
11 11 12 11 11 9 8 8 7 8 7 8 8 9 9 10 9 11 10 10 11 11 11 11 12 12 11 11 12 12 12 9 13 13 13 14 14 14 14 14 13 13 11 11
10 10 10 10 10 9 8 9 9 9 9 9 8 9 9 10 11 11 10 10 11 11 11 11 12 12 11 11 12 12 12 12 12 13 13 12 13 14 12 13 14 14 14 12
11 10 11 11 10 10 9 9 10 10 10 10 9 9 9 10 11 10 10 11 12 13 12 12 12 12 11 12 13 13 13 9 9 13 13 13 13 12 13 14 14 14 14 14
11 11 11 11 10 10 10 9 9 9 9 10 9 9 9 10 11 11 12 12 12 12 12 12 12 11 12 13 14 14 13 12 9 12 13 13 13 15 14 14 14 14 14 13
9 9 10 9 9 9 9 9 9 9 9 9 9 9 10 11 12 12 13 13 13 13 12 12 12 12 13 13 14 14 14 13 12 12 12 13 14 13 14 14 14 14 14 14
9 9 9 9 9 9 9 9 9 8 9 9 9 10 10 11 11 12 13 13 13 14 13 12 10 13 14 12 13 14 14 13 12 12 12 12 14 14 15 14 14 14 14 14
9 9 8 9 8 8 8 8 9 9 9 9 9 10 11 12 11 13 13 13 13 13 12 12 13 14 14 13 12 14 13 13 12 12 12 13 15 15 14 13 13 13 13 13
10 9 9 8 8 8 7 8 8 9 9 9 9 10 12 12 12 13 13 14 13 11 12 12 14 15 14 14 14 14 13 13 12 13 13 13 13 13 13 13 13 13 13 13
10 10 10 9 9 9 8 8 8 9 9 9 10 11 12 13 13 13 13 13 12 9 12 14 14 12 14 12 15 14 14 13 12 12 13 12 11 11 12 12 13 13 13 13
11 10 9 9 9 9 9 8 8 8 9 10 11 12 12 13 13 13 14 12 12 11 14 14 12 11 12 15 15 15 14 13 12 12 12 12 10 11 12 12 12 13 13 12
10 9 9 8 8 9 10 9 8 9 10 11 12 12 12 14 14 13 11 10 10 11 13 13 13 12 12 15 15 15 15 14 13 12 12 9 10 10 11 11 12 12 12 11
10 9 8 8 9 9 10 9 10 11 12 12 12 12 13 13 13 13 12 11 10 13 14 12 12 12 15 15 15 15 15 14 12 11 12 10 10 10 10 11 12 12 11 11
10 10 10 9 9 10 10 11 12 12 12 13 13 13 13 12 11 12 12 11 13 12 15 15 15 15 16 15 15 15 15 14 13 12 11 10 10 10 10 11 11 11 11 10
9 9 10 11 11 11 11 12 12 12 12 12 13 13 13 12 12 12 12 14 15 15 15 15 15 14 15 15 15 15 15 14 12 12 11 10 10 10 10 11 11 11 10 10